Time,TemperatureF,DewpointF,PressureIn,WindDirection,WindDirectionDegrees,WindSpeedMPH,WindSpeedGustMPH,Humidity,HourlyPrecipIn,Conditions,Clouds,dailyrainin,SoftwareType,DateUTC
2013-05-30 00:01:00,77.2,65.0,30.09,WSW,248,0.0,1.0,66,0.00,,,0.00,Wunderground v.1.15,2013-05-30 04:01:00,
2013-05-30 00:02:00,77.2,65.0,30.09,West,261,1.0,1.0,66,0.00,,,0.00,Wunderground v.1.15,2013-05-30 04:02:00,
2013-05-30 00:03:00,77.2,65.0,30.09,SW,227,4.0,4.0,66,0.00,,,0.00,Wunderground v.1.15,2013-05-30 04:03:00,
2013-05-30 00:04:00,77.2,65.0,30.09,West,261,0.0,4.0,66,0.00,,,0.00,Wunderground v.1.15,2013-05-30 04:04:00,
2013-05-30 00:09:00,77.2,65.0,30.09,WNW,303,0.0,4.0,66,0.00,,,0.00,Wunderground v.1.15,2013-05-30 04:09:00,
2013-05-30 00:11:00,77.2,65.0,30.09,WNW,298,0.0,1.0,66,0.00,,,0.00,Wunderground v.1.15,2013-05-30 04:11:00,
2013-05-30 00:15:00,77.0,64.8,30.09,SE,138,0.0,2.0,66,0.00,,,0.00,Wunderground v.1.15,2013-05-30 04:15:00,
2013-05-30 00:16:00,77.0,64.8,30.09,WSW,240,0.0,2.0,66,0.00,,,0.00,Wunderground v.1.15,2013-05-30 04:16:00,
2013-05-30 00:18:00,77.0,64.8,30.09,WSW,246,2.0,2.0,66,0.00,,,0.00,Wunderground v.1.15,2013-05-30 04:18:00,
2013-05-30 00:22:00,76.8,65.0,30.09,WSW,246,1.0,1.0,67,0.00,,,0.00,Wunderground v.1.15,2013-05-30 04:22:00,
2013-05-30 00:23:00,76.8,65.0,30.09,SSE,148,3.0,3.0,67,0.00,,,0.00,Wunderground v.1.15,2013-05-30 04:23:00,
2013-05-30 00:24:00,76.8,65.0,30.09,SE,144,0.0,3.0,67,0.00,,,0.00,Wunderground v.1.15,2013-05-30 04:24:00,
2013-05-30 00:28:00,76.8,65.0,30.09,WSW,238,1.0,3.0,67,0.00,,,0.00,Wunderground v.1.15,2013-05-30 04:28:00,
2013-05-30 00:29:00,76.8,65.0,30.09,WSW,238,1.0,3.0,67,0.00,,,0.00,Wunderground v.1.15,2013-05-30 04:29:00,
2013-05-30 00:30:00,76.7,64.9,30.09,WSW,238,0.0,1.0,67,0.00,,,0.00,Wunderground v.1.15,2013-05-30 04:30:00,
2013-05-30 00:31:00,76.7,65.3,30.09,WSW,238,1.0,1.0,68,0.00,,,0.00,Wunderground v.1.15,2013-05-30 04:31:00,
2013-05-30 00:36:00,76.5,65.1,30.09,SW,218,0.0,3.0,68,0.00,,,0.00,Wunderground v.1.15,2013-05-30 04:36:00,
2013-05-30 00:37:00,76.5,65.1,30.09,SW,218,0.0,3.0,68,0.00,,,0.00,Wunderground v.1.15,2013-05-30 04:37:00,
2013-05-30 00:39:00,76.5,65.1,30.09,SSW,202,1.0,3.0,68,0.00,,,0.00,Wunderground v.1.15,2013-05-30 04:39:00,
2013-05-30 00:40:00,76.3,65.0,30.09,West,269,2.0,2.0,68,0.00,,,0.00,Wunderground v.1.15,2013-05-30 04:40:00,
2013-05-30 00:41:00,76.3,65.0,30.09,West,269,0.0,2.0,68,0.00,,,0.00,Wunderground v.1.15,2013-05-30 04:41:00,
2013-05-30 00:42:00,76.3,65.0,30.09,West,269,0.0,2.0,68,0.00,,,0.00,Wunderground v.1.15,2013-05-30 04:42:00,
2013-05-30 00:46:00,76.3,65.0,30.09,WSW,244,1.0,2.0,68,0.00,,,0.00,Wunderground v.1.15,2013-05-30 04:46:00,
2013-05-30 00:47:00,76.1,64.8,30.09,WSW,244,0.0,2.0,68,0.00,,,0.00,Wunderground v.1.15,2013-05-30 04:47:00,
2013-05-30 00:48:00,76.1,64.8,30.09,WSW,244,0.0,2.0,68,0.00,,,0.00,Wunderground v.1.15,2013-05-30 04:48:00,
2013-05-30 00:49:00,76.1,65.2,30.09,WSW,244,1.0,2.0,69,0.00,,,0.00,Wunderground v.1.15,2013-05-30 04:49:00,
2013-05-30 00:52:00,76.0,65.1,30.09,WNW,287,0.0,7.0,69,0.00,,,0.00,Wunderground v.1.15,2013-05-30 04:52:00,
2013-05-30 00:54:00,76.0,65.1,30.09,SW,230,3.0,7.0,69,0.00,,,0.00,Wunderground v.1.15,2013-05-30 04:54:00,
2013-05-30 00:55:00,76.0,65.1,30.09,WSW,243,0.0,7.0,69,0.00,,,0.00,Wunderground v.1.15,2013-05-30 04:55:00,
2013-05-30 00:56:00,76.0,65.1,30.09,WSW,248,1.0,7.0,69,0.00,,,0.00,Wunderground v.1.15,2013-05-30 04:56:00,
2013-05-30 01:01:00,76.0,65.1,30.09,West,271,0.0,4.0,69,0.00,,,0.00,Wunderground v.1.15,2013-05-30 05:01:00,
2013-05-30 01:04:00,75.8,64.9,30.09,SW,221,0.0,4.0,69,0.00,,,0.00,Wunderground v.1.15,2013-05-30 05:04:00,
2013-05-30 01:07:00,75.8,64.9,30.09,NNW,333,2.0,4.0,69,0.00,,,0.00,Wunderground v.1.15,2013-05-30 05:07:00,
2013-05-30 01:10:00,75.8,64.9,30.09,NNE,32,1.0,1.0,69,0.00,,,0.00,Wunderground v.1.15,2013-05-30 05:10:00,
2013-05-30 01:12:00,75.8,64.9,30.09,NE,47,0.0,2.0,69,0.00,,,0.00,Wunderground v.1.15,2013-05-30 05:12:00,
2013-05-30 01:13:00,75.6,64.7,30.09,ENE,59,0.0,2.0,69,0.00,,,0.00,Wunderground v.1.15,2013-05-30 05:13:00,
2013-05-30 01:14:00,75.6,64.7,30.09,SSW,197,1.0,2.0,69,0.00,,,0.00,Wunderground v.1.15,2013-05-30 05:14:00,
2013-05-30 01:17:00,75.6,65.1,30.09,South,182,0.0,2.0,70,0.00,,,0.00,Wunderground v.1.15,2013-05-30 05:17:00,
2013-05-30 01:18:00,75.6,65.1,30.09,South,182,1.0,2.0,70,0.00,,,0.00,Wunderground v.1.15,2013-05-30 05:18:00,
2013-05-30 01:20:00,75.4,64.9,30.09,South,182,0.0,0.0,70,0.00,,,0.00,Wunderground v.1.15,2013-05-30 05:20:00,
2013-05-30 01:22:00,75.4,64.9,30.09,SSW,200,0.0,1.0,70,0.00,,,0.00,Wunderground v.1.15,2013-05-30 05:22:00,
2013-05-30 01:25:00,75.3,64.8,30.09,SSW,199,0.0,2.0,70,0.00,,,0.00,Wunderground v.1.15,2013-05-30 05:25:00,
2013-05-30 01:26:00,75.3,64.8,30.09,WSW,253,0.0,2.0,70,0.00,,,0.00,Wunderground v.1.15,2013-05-30 05:26:00,
2013-05-30 01:31:00,75.1,65.1,30.09,WSW,252,0.0,1.0,71,0.00,,,0.00,Wunderground v.1.15,2013-05-30 05:31:00,
2013-05-30 01:32:00,75.1,65.1,30.09,West,263,4.0,4.0,71,0.00,,,0.00,Wunderground v.1.15,2013-05-30 05:32:00,
2013-05-30 01:34:00,75.1,65.1,30.09,SW,227,2.0,4.0,71,0.00,,,0.00,Wunderground v.1.15,2013-05-30 05:34:00,
2013-05-30 01:38:00,74.9,64.9,30.09,SSW,213,3.0,4.0,71,0.00,,,0.00,Wunderground v.1.15,2013-05-30 05:38:00,
2013-05-30 01:39:00,74.9,64.9,30.09,SSW,213,0.0,4.0,71,0.00,,,0.00,Wunderground v.1.15,2013-05-30 05:39:00,
2013-05-30 01:42:00,74.9,64.9,30.09,SSW,209,1.0,1.0,71,0.00,,,0.00,Wunderground v.1.15,2013-05-30 05:42:00,
2013-05-30 01:43:00,74.7,64.7,30.09,WSW,257,0.0,1.0,71,0.00,,,0.00,Wunderground v.1.15,2013-05-30 05:43:00,
2013-05-30 01:44:00,74.7,64.7,30.09,WSW,257,0.0,1.0,71,0.00,,,0.00,Wunderground v.1.15,2013-05-30 05:44:00,
2013-05-30 01:46:00,74.7,64.7,30.09,WSW,257,0.0,1.0,71,0.00,,,0.00,Wunderground v.1.15,2013-05-30 05:46:00,
2013-05-30 01:47:00,74.6,65.0,30.09,WSW,257,0.0,1.0,72,0.00,,,0.00,Wunderground v.1.15,2013-05-30 05:47:00,
2013-05-30 01:49:00,74.6,65.0,30.09,WSW,257,0.0,1.0,72,0.00,,,0.00,Wunderground v.1.15,2013-05-30 05:49:00,
2013-05-30 01:50:00,74.4,64.8,30.09,WSW,257,0.0,0.0,72,0.00,,,0.00,Wunderground v.1.15,2013-05-30 05:50:00,
2013-05-30 01:51:00,74.4,64.8,30.09,West,259,0.0,0.0,72,0.00,,,0.00,Wunderground v.1.15,2013-05-30 05:51:00,
2013-05-30 01:52:00,74.4,64.8,30.10,SSW,193,0.0,0.0,72,0.00,,,0.00,Wunderground v.1.15,2013-05-30 05:52:00,
2013-05-30 01:55:00,74.2,64.6,30.10,WSW,240,4.0,4.0,72,0.00,,,0.00,Wunderground v.1.15,2013-05-30 05:55:00,
2013-05-30 01:56:00,74.2,64.6,30.10,WSW,241,1.0,4.0,72,0.00,,,0.00,Wunderground v.1.15,2013-05-30 05:56:00,
2013-05-30 01:57:00,74.2,64.6,30.10,East,98,0.0,4.0,72,0.00,,,0.00,Wunderground v.1.15,2013-05-30 05:57:00,
2013-05-30 01:58:00,74.2,64.6,30.10,East,98,0.0,4.0,72,0.00,,,0.00,Wunderground v.1.15,2013-05-30 05:58:00,
2013-05-30 02:01:00,74.2,65.0,30.10,WSW,240,0.0,1.0,73,0.00,,,0.00,Wunderground v.1.15,2013-05-30 06:01:00,
2013-05-30 02:03:00,74.0,64.8,30.10,WSW,240,0.0,1.0,73,0.00,,,0.00,Wunderground v.1.15,2013-05-30 06:03:00,
2013-05-30 02:04:00,74.0,64.8,30.10,WSW,240,0.0,1.0,73,0.00,,,0.00,Wunderground v.1.15,2013-05-30 06:04:00,
2013-05-30 02:06:00,74.0,64.8,30.10,WSW,242,4.0,4.0,73,0.00,,,0.00,Wunderground v.1.15,2013-05-30 06:06:00,
2013-05-30 02:07:00,74.0,64.8,30.10,WSW,242,1.0,4.0,73,0.00,,,0.00,Wunderground v.1.15,2013-05-30 06:07:00,
2013-05-30 02:08:00,74.0,64.8,30.10,WSW,242,0.0,4.0,73,0.00,,,0.00,Wunderground v.1.15,2013-05-30 06:08:00,
2013-05-30 02:09:00,74.0,64.8,30.10,WSW,242,0.0,4.0,73,0.00,,,0.00,Wunderground v.1.15,2013-05-30 06:09:00,
2013-05-30 02:12:00,73.9,64.7,30.10,WSW,255,3.0,3.0,73,0.00,,,0.00,Wunderground v.1.15,2013-05-30 06:12:00,
2013-05-30 02:13:00,73.9,64.7,30.10,West,268,0.0,5.0,73,0.00,,,0.00,Wunderground v.1.15,2013-05-30 06:13:00,
2013-05-30 02:14:00,73.9,64.7,30.10,West,268,0.0,5.0,73,0.00,,,0.00,Wunderground v.1.15,2013-05-30 06:14:00,
2013-05-30 02:17:00,73.9,64.7,30.10,West,265,0.0,5.0,73,0.00,,,0.00,Wunderground v.1.15,2013-05-30 06:17:00,
2013-05-30 02:19:00,73.7,64.5,30.10,WSW,252,1.0,5.0,73,0.00,,,0.00,Wunderground v.1.15,2013-05-30 06:19:00,
2013-05-30 02:22:00,73.7,64.5,30.10,WSW,252,0.0,3.0,73,0.00,,,0.00,Wunderground v.1.15,2013-05-30 06:22:00,
2013-05-30 02:23:00,73.7,64.5,30.10,SW,229,0.0,3.0,73,0.00,,,0.00,Wunderground v.1.15,2013-05-30 06:23:00,
2013-05-30 02:24:00,73.7,64.5,30.10,SW,229,0.0,3.0,73,0.00,,,0.00,Wunderground v.1.15,2013-05-30 06:24:00,
2013-05-30 02:25:00,73.7,64.9,30.10,SW,229,0.0,3.0,74,0.00,,,0.00,Wunderground v.1.15,2013-05-30 06:25:00,
2013-05-30 02:28:00,73.5,64.7,30.10,SW,222,0.0,3.0,74,0.00,,,0.00,Wunderground v.1.15,2013-05-30 06:28:00,
2013-05-30 02:29:00,73.5,64.7,30.10,SW,220,2.0,3.0,74,0.00,,,0.00,Wunderground v.1.15,2013-05-30 06:29:00,
2013-05-30 02:30:00,73.5,64.7,30.10,SW,224,0.0,0.0,74,0.00,,,0.00,Wunderground v.1.15,2013-05-30 06:30:00,
2013-05-30 02:34:00,73.3,64.5,30.10,SW,221,0.0,0.0,74,0.00,,,0.00,Wunderground v.1.15,2013-05-30 06:34:00,
2013-05-30 02:35:00,73.3,64.5,30.10,SW,221,0.0,0.0,74,0.00,,,0.00,Wunderground v.1.15,2013-05-30 06:35:00,
2013-05-30 02:39:00,73.2,64.8,30.10,SW,221,0.0,2.0,75,0.00,,,0.00,Wunderground v.1.15,2013-05-30 06:39:00,
2013-05-30 02:40:00,73.2,64.8,30.10,SW,221,0.0,0.0,75,0.00,,,0.00,Wunderground v.1.15,2013-05-30 06:40:00,
2013-05-30 02:41:00,73.2,64.8,30.10,SW,221,0.0,0.0,75,0.00,,,0.00,Wunderground v.1.15,2013-05-30 06:41:00,
2013-05-30 02:45:00,73.0,64.6,30.10,SW,221,0.0,0.0,75,0.00,,,0.00,Wunderground v.1.15,2013-05-30 06:45:00,
2013-05-30 02:46:00,73.0,64.6,30.10,SW,221,0.0,0.0,75,0.00,,,0.00,Wunderground v.1.15,2013-05-30 06:46:00,
2013-05-30 02:48:00,73.0,64.6,30.10,SW,221,0.0,1.0,75,0.00,,,0.00,Wunderground v.1.15,2013-05-30 06:48:00,
2013-05-30 02:50:00,72.8,64.4,30.10,SW,221,0.0,1.0,75,0.00,,,0.00,Wunderground v.1.15,2013-05-30 06:50:00,
2013-05-30 02:51:00,72.8,64.4,30.10,SW,221,0.0,1.0,75,0.00,,,0.00,Wunderground v.1.15,2013-05-30 06:51:00,
2013-05-30 02:52:00,72.8,64.4,30.10,SW,221,0.0,1.0,75,0.00,,,0.00,Wunderground v.1.15,2013-05-30 06:52:00,
2013-05-30 02:53:00,72.8,64.8,30.10,SW,221,2.0,3.0,76,0.00,,,0.00,Wunderground v.1.15,2013-05-30 06:53:00,
2013-05-30 02:55:00,72.8,64.8,30.10,SW,221,0.0,3.0,76,0.00,,,0.00,Wunderground v.1.15,2013-05-30 06:55:00,
2013-05-30 02:57:00,72.8,64.8,30.10,SW,221,0.0,3.0,76,0.00,,,0.00,Wunderground v.1.15,2013-05-30 06:57:00,
2013-05-30 03:00:00,72.7,64.7,30.10,SW,229,1.0,3.0,76,0.00,,,0.00,Wunderground v.1.15,2013-05-30 07:00:00,
2013-05-30 03:01:00,72.7,64.7,30.10,SW,229,0.0,3.0,76,0.00,,,0.00,Wunderground v.1.15,2013-05-30 07:01:00,
2013-05-30 03:02:00,72.7,64.7,30.10,SW,229,0.0,3.0,76,0.00,,,0.00,Wunderground v.1.15,2013-05-30 07:02:00,
2013-05-30 03:06:00,72.7,64.7,30.10,WSW,242,0.0,3.0,76,0.00,,,0.00,Wunderground v.1.15,2013-05-30 07:06:00,
2013-05-30 03:07:00,72.7,64.7,30.10,WSW,254,0.0,3.0,76,0.00,,,0.00,Wunderground v.1.15,2013-05-30 07:07:00,
2013-05-30 03:08:00,72.5,64.5,30.10,WSW,254,0.0,3.0,76,0.00,,,0.00,Wunderground v.1.15,2013-05-30 07:08:00,
2013-05-30 03:11:00,72.5,64.5,30.10,WSW,254,0.0,0.0,76,0.00,,,0.00,Wunderground v.1.15,2013-05-30 07:11:00,
2013-05-30 03:12:00,72.5,64.5,30.10,WSW,254,0.0,0.0,76,0.00,,,0.00,Wunderground v.1.15,2013-05-30 07:12:00,
2013-05-30 03:14:00,72.5,64.5,30.10,WSW,254,0.0,0.0,76,0.00,,,0.00,Wunderground v.1.15,2013-05-30 07:14:00,
2013-05-30 03:17:00,72.3,64.7,30.10,WSW,254,0.0,0.0,77,0.00,,,0.00,Wunderground v.1.15,2013-05-30 07:17:00,
2013-05-30 03:18:00,72.3,64.7,30.10,WSW,254,1.0,1.0,77,0.00,,,0.00,Wunderground v.1.15,2013-05-30 07:18:00,
2013-05-30 03:19:00,72.3,64.7,30.10,WSW,254,0.0,1.0,77,0.00,,,0.00,Wunderground v.1.15,2013-05-30 07:19:00,
2013-05-30 03:22:00,72.3,64.7,30.10,WSW,254,0.0,0.0,77,0.00,,,0.00,Wunderground v.1.15,2013-05-30 07:22:00,
2013-05-30 03:23:00,72.3,64.7,30.10,WSW,254,0.0,0.0,77,0.00,,,0.00,Wunderground v.1.15,2013-05-30 07:23:00,
2013-05-30 03:24:00,72.3,64.7,30.10,WSW,254,0.0,0.0,77,0.00,,,0.00,Wunderground v.1.15,2013-05-30 07:24:00,
2013-05-30 03:28:00,72.1,64.5,30.10,WSW,254,0.0,2.0,77,0.00,,,0.00,Wunderground v.1.15,2013-05-30 07:28:00,
2013-05-30 03:30:00,72.1,64.5,30.10,WSW,254,0.0,0.0,77,0.00,,,0.00,Wunderground v.1.15,2013-05-30 07:30:00,
2013-05-30 03:33:00,72.0,64.4,30.10,West,265,0.0,1.0,77,0.00,,,0.00,Wunderground v.1.15,2013-05-30 07:33:00,
2013-05-30 03:34:00,72.0,64.4,30.10,West,265,0.0,1.0,77,0.00,,,0.00,Wunderground v.1.15,2013-05-30 07:34:00,
2013-05-30 03:35:00,72.0,64.4,30.10,West,265,0.0,1.0,77,0.00,,,0.00,Wunderground v.1.15,2013-05-30 07:35:00,
2013-05-30 03:39:00,72.0,64.8,30.10,West,261,0.0,2.0,78,0.00,,,0.00,Wunderground v.1.15,2013-05-30 07:39:00,
2013-05-30 03:40:00,72.0,64.8,30.10,SW,222,0.0,0.0,78,0.00,,,0.00,Wunderground v.1.15,2013-05-30 07:40:00,
2013-05-30 03:44:00,71.8,64.6,30.10,SW,222,0.0,2.0,78,0.00,,,0.00,Wunderground v.1.15,2013-05-30 07:44:00,
2013-05-30 03:45:00,71.8,64.6,30.10,SW,222,0.0,2.0,78,0.00,,,0.00,Wunderground v.1.15,2013-05-30 07:45:00,
2013-05-30 03:49:00,71.8,64.6,30.10,WSW,252,0.0,4.0,78,0.00,,,0.00,Wunderground v.1.15,2013-05-30 07:49:00,
2013-05-30 03:50:00,71.8,64.6,30.10,WSW,252,0.0,0.0,78,0.00,,,0.00,Wunderground v.1.15,2013-05-30 07:50:00,
2013-05-30 03:51:00,71.8,64.6,30.10,WSW,252,0.0,0.0,78,0.00,,,0.00,Wunderground v.1.15,2013-05-30 07:51:00,
2013-05-30 03:54:00,71.8,64.6,30.10,WSW,252,0.0,1.0,78,0.00,,,0.00,Wunderground v.1.15,2013-05-30 07:54:00,
2013-05-30 03:55:00,71.8,64.6,30.10,WSW,252,0.0,1.0,78,0.00,,,0.00,Wunderground v.1.15,2013-05-30 07:55:00,
2013-05-30 03:56:00,71.8,64.6,30.10,WSW,252,0.0,1.0,78,0.00,,,0.00,Wunderground v.1.15,2013-05-30 07:56:00,
2013-05-30 04:00:00,71.8,64.6,30.10,WSW,252,0.0,2.0,78,0.00,,,0.00,Wunderground v.1.15,2013-05-30 08:00:00,
2013-05-30 04:02:00,71.6,64.4,30.10,WSW,252,0.0,2.0,78,0.00,,,0.00,Wunderground v.1.15,2013-05-30 08:02:00,
2013-05-30 04:05:00,71.6,64.4,30.10,WSW,252,0.0,3.0,78,0.00,,,0.00,Wunderground v.1.15,2013-05-30 08:05:00,
2013-05-30 04:06:00,71.6,64.4,30.10,WSW,252,1.0,3.0,78,0.00,,,0.00,Wunderground v.1.15,2013-05-30 08:06:00,
2013-05-30 04:08:00,71.6,64.4,30.10,WSW,254,0.0,3.0,78,0.00,,,0.00,Wunderground v.1.15,2013-05-30 08:08:00,
2013-05-30 04:11:00,71.6,64.4,30.10,WSW,254,1.0,2.0,78,0.00,,,0.00,Wunderground v.1.15,2013-05-30 08:11:00,
2013-05-30 04:13:00,71.6,64.4,30.10,West,277,0.0,3.0,78,0.00,,,0.00,Wunderground v.1.15,2013-05-30 08:13:00,
2013-05-30 04:16:00,71.6,64.4,30.10,WSW,249,2.0,4.0,78,0.00,,,0.00,Wunderground v.1.15,2013-05-30 08:16:00,
2013-05-30 04:19:00,71.6,64.4,30.09,WSW,257,0.0,4.0,78,0.00,,,0.00,Wunderground v.1.15,2013-05-30 08:19:00,
2013-05-30 04:21:00,71.6,64.4,30.09,SW,236,0.0,5.0,78,0.00,,,0.00,Wunderground v.1.15,2013-05-30 08:21:00,
2013-05-30 04:22:00,71.6,64.4,30.09,SW,235,1.0,5.0,78,0.00,,,0.00,Wunderground v.1.15,2013-05-30 08:22:00,
2013-05-30 04:25:00,71.6,64.4,30.09,SW,236,0.0,5.0,78,0.00,,,0.00,Wunderground v.1.15,2013-05-30 08:25:00,
2013-05-30 04:26:00,71.6,64.4,30.10,SW,236,0.0,5.0,78,0.00,,,0.00,Wunderground v.1.15,2013-05-30 08:26:00,
2013-05-30 04:27:00,71.6,64.4,30.10,SW,236,0.0,5.0,78,0.00,,,0.00,Wunderground v.1.15,2013-05-30 08:27:00,
2013-05-30 04:30:00,71.6,64.4,30.10,SW,236,0.0,1.0,78,0.00,,,0.00,Wunderground v.1.15,2013-05-30 08:30:00,
2013-05-30 04:32:00,71.6,64.4,30.10,SW,236,0.0,1.0,78,0.00,,,0.00,Wunderground v.1.15,2013-05-30 08:32:00,
2013-05-30 04:35:00,71.6,64.4,30.10,WSW,237,0.0,4.0,78,0.00,,,0.00,Wunderground v.1.15,2013-05-30 08:35:00,
2013-05-30 04:37:00,71.6,64.4,30.10,WSW,252,1.0,4.0,78,0.00,,,0.00,Wunderground v.1.15,2013-05-30 08:37:00,
2013-05-30 04:38:00,71.6,64.4,30.10,WSW,252,0.0,4.0,78,0.00,,,0.00,Wunderground v.1.15,2013-05-30 08:38:00,
2013-05-30 04:41:00,71.5,64.3,30.10,WSW,254,0.0,0.0,78,0.00,,,0.00,Wunderground v.1.15,2013-05-30 08:41:00,
2013-05-30 04:42:00,71.5,64.3,30.10,WSW,242,0.0,1.0,78,0.00,,,0.00,Wunderground v.1.15,2013-05-30 08:42:00,
2013-05-30 04:43:00,71.5,64.3,30.10,WSW,242,0.0,1.0,78,0.00,,,0.00,Wunderground v.1.15,2013-05-30 08:43:00,
2013-05-30 04:44:00,71.5,64.3,30.10,WSW,242,0.0,1.0,78,0.00,,,0.00,Wunderground v.1.15,2013-05-30 08:44:00,
2013-05-30 04:46:00,71.5,64.3,30.10,WSW,242,3.0,3.0,78,0.00,,,0.00,Wunderground v.1.15,2013-05-30 08:46:00,
2013-05-30 04:48:00,71.5,64.3,30.10,WSW,242,0.0,3.0,78,0.00,,,0.00,Wunderground v.1.15,2013-05-30 08:48:00,
2013-05-30 04:49:00,71.5,64.3,30.10,WSW,242,0.0,3.0,78,0.00,,,0.00,Wunderground v.1.15,2013-05-30 08:49:00,
2013-05-30 04:51:00,71.5,64.3,30.10,WSW,242,0.0,0.0,78,0.00,,,0.00,Wunderground v.1.15,2013-05-30 08:51:00,
2013-05-30 04:53:00,71.5,64.3,30.10,West,267,0.0,3.0,78,0.00,,,0.00,Wunderground v.1.15,2013-05-30 08:53:00,
2013-05-30 04:54:00,71.5,64.3,30.11,West,267,0.0,3.0,78,0.00,,,0.00,Wunderground v.1.15,2013-05-30 08:54:00,
2013-05-30 04:56:00,71.5,64.3,30.11,West,267,0.0,3.0,78,0.00,,,0.00,Wunderground v.1.15,2013-05-30 08:56:00,
2013-05-30 04:58:00,71.3,64.1,30.11,West,267,0.0,3.0,78,0.00,,,0.00,Wunderground v.1.15,2013-05-30 08:58:00,
2013-05-30 05:00:00,71.3,64.1,30.11,West,267,0.0,0.0,78,0.00,,,0.00,Wunderground v.1.15,2013-05-30 09:00:00,
2013-05-30 05:01:00,71.3,64.1,30.11,SSW,196,0.0,6.0,78,0.00,,,0.00,Wunderground v.1.15,2013-05-30 09:01:00,
2013-05-30 05:03:00,71.3,64.1,30.11,SSW,197,1.0,6.0,78,0.00,,,0.00,Wunderground v.1.15,2013-05-30 09:03:00,
2013-05-30 05:05:00,71.3,64.1,30.11,SSW,197,0.0,6.0,78,0.00,,,0.00,Wunderground v.1.15,2013-05-30 09:05:00,
2013-05-30 05:07:00,71.3,64.1,30.11,SSW,197,0.0,6.0,78,0.00,,,0.00,Wunderground v.1.15,2013-05-30 09:07:00,
2013-05-30 05:09:00,71.1,63.9,30.11,SSW,209,0.0,6.0,78,0.00,,,0.00,Wunderground v.1.15,2013-05-30 09:09:00,
2013-05-30 05:10:00,71.1,63.9,30.11,SSW,209,0.0,0.0,78,0.00,,,0.00,Wunderground v.1.15,2013-05-30 09:10:00,
2013-05-30 05:13:00,71.1,63.9,30.11,SSW,209,0.0,0.0,78,0.00,,,0.00,Wunderground v.1.15,2013-05-30 09:13:00,
2013-05-30 05:14:00,71.1,64.3,30.11,SSW,209,0.0,0.0,79,0.00,,,0.00,Wunderground v.1.15,2013-05-30 09:14:00,
2013-05-30 05:15:00,71.1,64.3,30.11,SSW,209,0.0,0.0,79,0.00,,,0.00,Wunderground v.1.15,2013-05-30 09:15:00,
2013-05-30 05:18:00,71.1,64.3,30.11,SW,225,0.0,6.0,79,0.00,,,0.00,Wunderground v.1.15,2013-05-30 09:18:00,
2013-05-30 05:19:00,71.1,64.3,30.11,SW,225,0.0,6.0,79,0.00,,,0.00,Wunderground v.1.15,2013-05-30 09:19:00,
2013-05-30 05:20:00,71.1,64.3,30.11,SW,225,2.0,2.0,79,0.00,,,0.00,Wunderground v.1.15,2013-05-30 09:20:00,
2013-05-30 05:21:00,71.1,63.9,30.11,SW,225,0.0,2.0,78,0.00,,,0.00,Wunderground v.1.15,2013-05-30 09:21:00,
2013-05-30 05:23:00,71.1,64.3,30.11,SW,234,0.0,4.0,79,0.00,,,0.00,Wunderground v.1.15,2013-05-30 09:23:00,
2013-05-30 05:24:00,71.1,64.3,30.11,SW,229,1.0,4.0,79,0.00,,,0.00,Wunderground v.1.15,2013-05-30 09:24:00,
2013-05-30 05:25:00,71.1,64.3,30.11,SW,229,0.0,4.0,79,0.00,,,0.00,Wunderground v.1.15,2013-05-30 09:25:00,
2013-05-30 05:26:00,71.1,64.3,30.11,SW,229,0.0,4.0,79,0.00,,,0.00,Wunderground v.1.15,2013-05-30 09:26:00,
2013-05-30 05:29:00,71.1,64.3,30.11,SW,229,0.0,4.0,79,0.00,,,0.00,Wunderground v.1.15,2013-05-30 09:29:00,
2013-05-30 05:30:00,71.1,64.3,30.11,SW,229,1.0,1.0,79,0.00,,,0.00,Wunderground v.1.15,2013-05-30 09:30:00,
2013-05-30 05:31:00,71.1,64.3,30.11,WSW,239,2.0,3.0,79,0.00,,,0.00,Wunderground v.1.15,2013-05-30 09:31:00,
2013-05-30 05:32:00,71.1,64.3,30.11,WSW,239,0.0,3.0,79,0.00,,,0.00,Wunderground v.1.15,2013-05-30 09:32:00,
2013-05-30 05:34:00,71.1,64.3,30.11,SW,224,0.0,4.0,79,0.00,,,0.00,Wunderground v.1.15,2013-05-30 09:34:00,
2013-05-30 05:35:00,71.1,63.9,30.12,SW,218,0.0,4.0,78,0.00,,,0.00,Wunderground v.1.15,2013-05-30 09:35:00,
2013-05-30 05:36:00,71.1,63.9,30.12,SW,218,0.0,4.0,78,0.00,,,0.00,Wunderground v.1.15,2013-05-30 09:36:00,
2013-05-30 05:37:00,71.1,63.9,30.12,West,271,0.0,4.0,78,0.00,,,0.00,Wunderground v.1.15,2013-05-30 09:37:00,
2013-05-30 05:39:00,71.1,63.9,30.12,WSW,253,0.0,4.0,78,0.00,,,0.00,Wunderground v.1.15,2013-05-30 09:39:00,
2013-05-30 05:40:00,71.1,63.9,30.12,SW,223,1.0,4.0,78,0.00,,,0.00,Wunderground v.1.15,2013-05-30 09:40:00,
2013-05-30 05:41:00,71.1,63.9,30.12,SW,223,0.0,4.0,78,0.00,,,0.00,Wunderground v.1.15,2013-05-30 09:41:00,
2013-05-30 05:43:00,71.1,63.9,30.12,SW,223,0.0,4.0,78,0.00,,,0.00,Wunderground v.1.15,2013-05-30 09:43:00,
2013-05-30 05:44:00,71.1,63.9,30.12,SW,222,3.0,4.0,78,0.00,,,0.00,Wunderground v.1.15,2013-05-30 09:44:00,
2013-05-30 05:45:00,71.1,63.9,30.12,SW,222,0.0,4.0,78,0.00,,,0.00,Wunderground v.1.15,2013-05-30 09:45:00,
2013-05-30 05:46:00,71.1,63.9,30.12,SW,222,0.0,4.0,78,0.00,,,0.00,Wunderground v.1.15,2013-05-30 09:46:00,
2013-05-30 05:48:00,71.1,63.9,30.12,SW,222,0.0,4.0,78,0.00,,,0.00,Wunderground v.1.15,2013-05-30 09:48:00,
2013-05-30 05:49:00,71.1,63.9,30.12,West,273,0.0,4.0,78,0.00,,,0.00,Wunderground v.1.15,2013-05-30 09:49:00,
2013-05-30 05:50:00,71.1,63.9,30.12,West,273,0.0,1.0,78,0.00,,,0.00,Wunderground v.1.15,2013-05-30 09:50:00,
2013-05-30 05:51:00,71.1,63.9,30.12,West,273,0.0,1.0,78,0.00,,,0.00,Wunderground v.1.15,2013-05-30 09:51:00,
2013-05-30 05:52:00,71.1,63.9,30.12,West,273,0.0,1.0,78,0.00,,,0.00,Wunderground v.1.15,2013-05-30 09:52:00,
2013-05-30 05:53:00,71.1,63.9,30.12,WNW,286,0.0,3.0,78,0.00,,,0.00,Wunderground v.1.15,2013-05-30 09:53:00,
2013-05-30 05:55:00,71.1,63.9,30.12,West,275,0.0,3.0,78,0.00,,,0.00,Wunderground v.1.15,2013-05-30 09:55:00,
2013-05-30 05:56:00,71.1,63.9,30.12,West,265,1.0,3.0,78,0.00,,,0.00,Wunderground v.1.15,2013-05-30 09:56:00,
2013-05-30 05:57:00,71.1,63.9,30.12,West,265,0.0,3.0,78,0.00,,,0.00,Wunderground v.1.15,2013-05-30 09:57:00,
2013-05-30 05:59:00,70.9,64.1,30.12,West,265,0.0,3.0,79,0.00,,,0.00,Wunderground v.1.15,2013-05-30 09:59:00,
2013-05-30 06:00:00,70.9,64.1,30.12,West,265,0.0,0.0,79,0.00,,,0.00,Wunderground v.1.15,2013-05-30 10:00:00,
2013-05-30 06:02:00,70.9,64.1,30.12,WNW,293,0.0,3.0,79,0.00,,,0.00,Wunderground v.1.15,2013-05-30 10:02:00,
2013-05-30 06:03:00,70.9,64.1,30.12,WNW,293,0.0,3.0,79,0.00,,,0.00,Wunderground v.1.15,2013-05-30 10:03:00,
2013-05-30 06:04:00,70.9,64.1,30.12,WNW,293,0.0,3.0,79,0.00,,,0.00,Wunderground v.1.15,2013-05-30 10:04:00,
2013-05-30 06:05:00,70.9,64.1,30.12,NW,311,1.0,5.0,79,0.00,,,0.00,Wunderground v.1.15,2013-05-30 10:05:00,
2013-05-30 06:06:00,70.9,64.1,30.12,NW,311,0.0,5.0,79,0.00,,,0.00,Wunderground v.1.15,2013-05-30 10:06:00,
2013-05-30 06:07:00,71.1,64.3,30.12,NW,311,1.0,5.0,79,0.00,,,0.00,Wunderground v.1.15,2013-05-30 10:07:00,
2013-05-30 06:08:00,71.1,64.3,30.12,NW,315,0.0,5.0,79,0.00,,,0.00,Wunderground v.1.15,2013-05-30 10:08:00,
2013-05-30 06:10:00,71.1,64.3,30.12,NW,315,1.0,1.0,79,0.00,,,0.00,Wunderground v.1.15,2013-05-30 10:10:00,
2013-05-30 06:11:00,71.1,64.3,30.12,WNW,302,0.0,2.0,79,0.00,,,0.00,Wunderground v.1.15,2013-05-30 10:11:00,
2013-05-30 06:12:00,71.1,63.9,30.12,WNW,302,0.0,2.0,78,0.00,,,0.00,Wunderground v.1.15,2013-05-30 10:12:00,
2013-05-30 06:14:00,71.1,63.9,30.12,WNW,294,0.0,2.0,78,0.00,,,0.00,Wunderground v.1.15,2013-05-30 10:14:00,
2013-05-30 06:15:00,71.1,63.9,30.12,SW,220,2.0,4.0,78,0.00,,,0.00,Wunderground v.1.15,2013-05-30 10:15:00,
2013-05-30 06:16:00,71.3,64.1,30.12,WSW,250,3.0,4.0,78,0.00,,,0.00,Wunderground v.1.15,2013-05-30 10:16:00,
2013-05-30 06:17:00,71.3,64.1,30.12,West,267,2.0,4.0,78,0.00,,,0.00,Wunderground v.1.15,2013-05-30 10:17:00,
2013-05-30 06:19:00,71.3,64.1,30.13,West,265,0.0,4.0,78,0.00,,,0.00,Wunderground v.1.15,2013-05-30 10:19:00,
2013-05-30 06:21:00,71.5,64.3,30.13,West,281,1.0,2.0,78,0.00,,,0.00,Wunderground v.1.15,2013-05-30 10:21:00,
2013-05-30 06:22:00,71.5,64.3,30.13,West,281,0.0,2.0,78,0.00,,,0.00,Wunderground v.1.15,2013-05-30 10:22:00,
2013-05-30 06:23:00,71.5,64.3,30.13,West,281,2.0,2.0,78,0.00,,,0.00,Wunderground v.1.15,2013-05-30 10:23:00,
2013-05-30 06:24:00,71.5,64.3,30.13,NW,320,2.0,3.0,78,0.00,,,0.00,Wunderground v.1.15,2013-05-30 10:24:00,
2013-05-30 06:26:00,71.6,64.4,30.13,NW,310,2.0,3.0,78,0.00,,,0.00,Wunderground v.1.15,2013-05-30 10:26:00,
2013-05-30 06:27:00,71.6,64.4,30.13,WSW,251,2.0,3.0,78,0.00,,,0.00,Wunderground v.1.15,2013-05-30 10:27:00,
2013-05-30 06:28:00,71.6,64.4,30.13,WSW,238,1.0,3.0,78,0.00,,,0.00,Wunderground v.1.15,2013-05-30 10:28:00,
2013-05-30 06:30:00,71.6,64.4,30.13,WSW,238,0.0,1.0,78,0.00,,,0.00,Wunderground v.1.15,2013-05-30 10:30:00,
2013-05-30 06:31:00,71.8,64.2,30.13,WSW,239,1.0,1.0,77,0.00,,,0.00,Wunderground v.1.15,2013-05-30 10:31:00,
2013-05-30 06:32:00,71.8,64.2,30.13,WSW,239,1.0,2.0,77,0.00,,,0.00,Wunderground v.1.15,2013-05-30 10:32:00,
2013-05-30 06:33:00,71.8,64.2,30.13,WSW,239,0.0,2.0,77,0.00,,,0.00,Wunderground v.1.15,2013-05-30 10:33:00,
2013-05-30 06:35:00,71.8,64.2,30.13,NW,319,0.0,6.0,77,0.00,,,0.00,Wunderground v.1.15,2013-05-30 10:35:00,
2013-05-30 06:37:00,72.0,64.4,30.13,NW,319,0.0,6.0,77,0.00,,,0.00,Wunderground v.1.15,2013-05-30 10:37:00,
2013-05-30 06:39:00,72.0,64.4,30.13,WSW,240,3.0,6.0,77,0.00,,,0.00,Wunderground v.1.15,2013-05-30 10:39:00,
2013-05-30 06:40:00,72.1,64.5,30.13,WNW,298,1.0,3.0,77,0.00,,,0.00,Wunderground v.1.15,2013-05-30 10:40:00,
2013-05-30 06:42:00,72.1,64.5,30.13,NW,304,0.0,3.0,77,0.00,,,0.00,Wunderground v.1.15,2013-05-30 10:42:00,
2013-05-30 06:43:00,72.3,64.3,30.13,West,261,0.0,3.0,76,0.00,,,0.00,Wunderground v.1.15,2013-05-30 10:43:00,
2013-05-30 06:44:00,72.3,64.3,30.13,WNW,288,0.0,3.0,76,0.00,,,0.00,Wunderground v.1.15,2013-05-30 10:44:00,
2013-05-30 06:45:00,72.3,64.3,30.13,WNW,288,0.0,3.0,76,0.00,,,0.00,Wunderground v.1.15,2013-05-30 10:45:00,
2013-05-30 06:47:00,72.5,64.5,30.13,WNW,291,0.0,3.0,76,0.00,,,0.00,Wunderground v.1.15,2013-05-30 10:47:00,
2013-05-30 06:48:00,72.5,64.5,30.13,SW,217,3.0,3.0,76,0.00,,,0.00,Wunderground v.1.15,2013-05-30 10:48:00,
2013-05-30 06:49:00,72.5,64.5,30.13,SW,219,0.0,3.0,76,0.00,,,0.00,Wunderground v.1.15,2013-05-30 10:49:00,
2013-05-30 06:50:00,72.5,64.5,30.13,SW,223,1.0,4.0,76,0.00,,,0.00,Wunderground v.1.15,2013-05-30 10:50:00,
2013-05-30 06:51:00,72.5,64.5,30.13,West,271,1.0,4.0,76,0.00,,,0.00,Wunderground v.1.15,2013-05-30 10:51:00,
2013-05-30 06:53:00,72.7,64.7,30.13,West,269,1.0,5.0,76,0.00,,,0.00,Wunderground v.1.15,2013-05-30 10:53:00,
2013-05-30 06:54:00,72.7,64.7,30.13,WSW,251,3.0,5.0,76,0.00,,,0.00,Wunderground v.1.15,2013-05-30 10:54:00,
2013-05-30 06:56:00,72.7,64.7,30.13,WSW,251,0.0,5.0,76,0.00,,,0.00,Wunderground v.1.15,2013-05-30 10:56:00,
2013-05-30 06:59:00,72.8,64.8,30.13,WSW,251,1.0,5.0,76,0.00,,,0.00,Wunderground v.1.15,2013-05-30 10:59:00,
2013-05-30 07:00:00,72.8,64.8,30.13,WSW,248,1.0,2.0,76,0.00,,,0.00,Wunderground v.1.15,2013-05-30 11:00:00,
2013-05-30 07:01:00,72.8,64.8,30.13,WSW,251,0.0,3.0,76,0.00,,,0.00,Wunderground v.1.15,2013-05-30 11:01:00,
2013-05-30 07:05:00,73.0,64.6,30.13,SW,228,2.0,4.0,75,0.00,,,0.00,Wunderground v.1.15,2013-05-30 11:05:00,
2013-05-30 07:06:00,73.0,64.6,30.14,SW,228,2.0,4.0,75,0.00,,,0.00,Wunderground v.1.15,2013-05-30 11:06:00,
2013-05-30 07:10:00,73.2,64.8,30.13,WNW,292,3.0,3.0,75,0.00,,,0.00,Wunderground v.1.15,2013-05-30 11:10:00,
2013-05-30 07:11:00,73.2,64.8,30.14,West,273,1.0,5.0,75,0.00,,,0.00,Wunderground v.1.15,2013-05-30 11:11:00,
2013-05-30 07:12:00,73.2,64.8,30.14,West,271,1.0,5.0,75,0.00,,,0.00,Wunderground v.1.15,2013-05-30 11:12:00,
2013-05-30 07:15:00,73.3,64.9,30.14,West,279,1.0,5.0,75,0.00,,,0.00,Wunderground v.1.15,2013-05-30 11:15:00,
2013-05-30 07:16:00,73.5,65.1,30.14,SSW,203,2.0,5.0,75,0.00,,,0.00,Wunderground v.1.15,2013-05-30 11:16:00,
2013-05-30 07:17:00,73.5,64.7,30.14,SSW,212,2.0,5.0,74,0.00,,,0.00,Wunderground v.1.15,2013-05-30 11:17:00,
2013-05-30 07:20:00,73.5,65.1,30.14,WNW,294,3.0,3.0,75,0.00,,,0.00,Wunderground v.1.15,2013-05-30 11:20:00,
2013-05-30 07:21:00,73.5,65.1,30.14,WNW,294,0.0,3.0,75,0.00,,,0.00,Wunderground v.1.15,2013-05-30 11:21:00,
2013-05-30 07:23:00,73.7,65.3,30.14,SW,236,3.0,6.0,75,0.00,,,0.00,Wunderground v.1.15,2013-05-30 11:23:00,
2013-05-30 07:25:00,73.7,64.9,30.14,NW,317,6.0,6.0,74,0.00,,,0.00,Wunderground v.1.15,2013-05-30 11:25:00,
2013-05-30 07:26:00,73.7,64.9,30.14,WNW,287,0.0,6.0,74,0.00,,,0.00,Wunderground v.1.15,2013-05-30 11:26:00,
2013-05-30 07:27:00,73.7,64.9,30.14,SW,229,3.0,6.0,74,0.00,,,0.00,Wunderground v.1.15,2013-05-30 11:27:00,
2013-05-30 07:28:00,73.9,65.1,30.14,WSW,242,0.0,6.0,74,0.00,,,0.00,Wunderground v.1.15,2013-05-30 11:28:00,
2013-05-30 07:30:00,74.0,65.2,30.14,WNW,303,0.0,2.0,74,0.00,,,0.00,Wunderground v.1.15,2013-05-30 11:30:00,
2013-05-30 07:31:00,74.0,65.2,30.14,WNW,303,0.0,2.0,74,0.00,,,0.00,Wunderground v.1.15,2013-05-30 11:31:00,
2013-05-30 07:32:00,74.0,65.2,30.14,WNW,303,1.0,2.0,74,0.00,,,0.00,Wunderground v.1.15,2013-05-30 11:32:00,
2013-05-30 07:33:00,74.2,65.4,30.14,WNW,303,2.0,2.0,74,0.00,,,0.00,Wunderground v.1.15,2013-05-30 11:33:00,
2013-05-30 07:36:00,74.2,65.4,30.14,WSW,246,0.0,2.0,74,0.00,,,0.00,Wunderground v.1.15,2013-05-30 11:36:00,
2013-05-30 07:37:00,74.4,65.2,30.14,WSW,246,0.0,2.0,73,0.00,,,0.00,Wunderground v.1.15,2013-05-30 11:37:00,
2013-05-30 07:38:00,74.4,65.2,30.14,SW,229,1.0,4.0,73,0.00,,,0.00,Wunderground v.1.15,2013-05-30 11:38:00,
2013-05-30 07:41:00,74.4,65.2,30.14,WSW,240,2.0,4.0,73,0.00,,,0.00,Wunderground v.1.15,2013-05-30 11:41:00,
2013-05-30 07:42:00,74.6,65.4,30.14,SW,230,3.0,5.0,73,0.00,,,0.00,Wunderground v.1.15,2013-05-30 11:42:00,
2013-05-30 07:44:00,74.6,65.4,30.14,West,281,1.0,5.0,73,0.00,,,0.00,Wunderground v.1.15,2013-05-30 11:44:00,
2013-05-30 07:46:00,74.6,65.4,30.14,WSW,247,2.0,5.0,73,0.00,,,0.00,Wunderground v.1.15,2013-05-30 11:46:00,
2013-05-30 07:47:00,74.6,65.4,30.14,NW,310,5.0,5.0,73,0.00,,,0.00,Wunderground v.1.15,2013-05-30 11:47:00,
2013-05-30 07:49:00,74.7,65.5,30.14,NW,304,2.0,5.0,73,0.00,,,0.00,Wunderground v.1.15,2013-05-30 11:49:00,
2013-05-30 07:52:00,74.9,65.7,30.14,SSE,164,2.0,4.0,73,0.00,,,0.00,Wunderground v.1.15,2013-05-30 11:52:00,
2013-05-30 07:53:00,74.9,65.7,30.14,WNW,289,0.0,4.0,73,0.00,,,0.00,Wunderground v.1.15,2013-05-30 11:53:00,
2013-05-30 07:54:00,74.9,65.7,30.14,West,279,2.0,4.0,73,0.00,,,0.00,Wunderground v.1.15,2013-05-30 11:54:00,
2013-05-30 07:57:00,75.3,66.0,30.14,West,263,0.0,4.0,73,0.00,,,0.00,Wunderground v.1.15,2013-05-30 11:57:00,
2013-05-30 07:58:00,75.3,66.0,30.14,West,281,2.0,4.0,73,0.00,,,0.00,Wunderground v.1.15,2013-05-30 11:58:00,
2013-05-30 07:59:00,75.3,66.0,30.14,West,278,2.0,4.0,73,0.00,,,0.00,Wunderground v.1.15,2013-05-30 11:59:00,
2013-05-30 08:02:00,75.4,65.7,30.14,NW,323,2.0,5.0,72,0.00,,,0.00,Wunderground v.1.15,2013-05-30 12:02:00,
2013-05-30 08:03:00,75.4,65.3,30.14,SW,232,2.0,5.0,71,0.00,,,0.00,Wunderground v.1.15,2013-05-30 12:03:00,
2013-05-30 08:04:00,75.4,65.3,30.14,SW,232,0.0,5.0,71,0.00,,,0.00,Wunderground v.1.15,2013-05-30 12:04:00,
2013-05-30 08:05:00,75.6,65.9,30.14,West,279,1.0,5.0,72,0.00,,,0.00,Wunderground v.1.15,2013-05-30 12:05:00,
2013-05-30 08:08:00,75.6,65.5,30.14,NW,314,2.0,5.0,71,0.00,,,0.00,Wunderground v.1.15,2013-05-30 12:08:00,
2013-05-30 08:09:00,75.6,65.5,30.14,WNW,303,3.0,5.0,71,0.00,,,0.00,Wunderground v.1.15,2013-05-30 12:09:00,
2013-05-30 08:10:00,75.8,65.7,30.14,West,275,3.0,4.0,71,0.00,,,0.00,Wunderground v.1.15,2013-05-30 12:10:00,
2013-05-30 08:13:00,76.0,65.9,30.14,NW,311,1.0,6.0,71,0.00,,,0.00,Wunderground v.1.15,2013-05-30 12:13:00,
2013-05-30 08:14:00,76.0,65.9,30.14,WNW,298,1.0,6.0,71,0.00,,,0.00,Wunderground v.1.15,2013-05-30 12:14:00,
2013-05-30 08:15:00,76.0,65.9,30.14,WNW,285,3.0,6.0,71,0.00,,,0.00,Wunderground v.1.15,2013-05-30 12:15:00,
2013-05-30 08:19:00,76.3,66.2,30.14,SSW,192,2.0,6.0,71,0.00,,,0.00,Wunderground v.1.15,2013-05-30 12:19:00,
2013-05-30 08:20:00,76.3,66.2,30.14,WNW,283,2.0,3.0,71,0.00,,,0.00,Wunderground v.1.15,2013-05-30 12:20:00,
2013-05-30 08:24:00,76.5,66.0,30.14,West,271,3.0,5.0,70,0.00,,,0.00,Wunderground v.1.15,2013-05-30 12:24:00,
2013-05-30 08:25:00,76.5,66.0,30.14,West,272,0.0,5.0,70,0.00,,,0.00,Wunderground v.1.15,2013-05-30 12:25:00,
2013-05-30 08:26:00,76.7,66.2,30.14,WSW,252,0.0,5.0,70,0.00,,,0.00,Wunderground v.1.15,2013-05-30 12:26:00,
2013-05-30 08:27:00,76.7,66.2,30.14,WSW,253,0.0,5.0,70,0.00,,,0.00,Wunderground v.1.15,2013-05-30 12:27:00,
2013-05-30 08:30:00,76.8,66.3,30.14,SW,227,3.0,3.0,70,0.00,,,0.00,Wunderground v.1.15,2013-05-30 12:30:00,
2013-05-30 08:31:00,76.8,65.9,30.14,SW,223,1.0,4.0,69,0.00,,,0.00,Wunderground v.1.15,2013-05-30 12:31:00,
2013-05-30 08:33:00,77.0,66.0,30.14,NW,304,0.0,5.0,69,0.00,,,0.00,Wunderground v.1.15,2013-05-30 12:33:00,
2013-05-30 08:35:00,77.0,66.0,30.14,WNW,296,4.0,5.0,69,0.00,,,0.00,Wunderground v.1.15,2013-05-30 12:35:00,
2013-05-30 08:36:00,77.2,66.2,30.14,WNW,299,0.0,5.0,69,0.00,,,0.00,Wunderground v.1.15,2013-05-30 12:36:00,
2013-05-30 08:38:00,77.4,66.4,30.14,NW,310,3.0,5.0,69,0.00,,,0.00,Wunderground v.1.15,2013-05-30 12:38:00,
2013-05-30 08:40:00,77.4,66.4,30.14,WNW,290,2.0,3.0,69,0.00,,,0.00,Wunderground v.1.15,2013-05-30 12:40:00,
2013-05-30 08:41:00,77.4,66.0,30.14,SSW,209,1.0,3.0,68,0.00,,,0.00,Wunderground v.1.15,2013-05-30 12:41:00,
2013-05-30 08:44:00,77.6,66.2,30.14,WNW,300,2.0,4.0,68,0.00,,,0.00,Wunderground v.1.15,2013-05-30 12:44:00,
2013-05-30 08:45:00,77.7,66.3,30.14,WNW,298,2.0,5.0,68,0.00,,,0.00,Wunderground v.1.15,2013-05-30 12:45:00,
2013-05-30 08:46:00,77.7,66.3,30.14,West,263,1.0,5.0,68,0.00,,,0.00,Wunderground v.1.15,2013-05-30 12:46:00,
2013-05-30 08:49:00,77.9,66.5,30.14,NW,311,4.0,5.0,68,0.00,,,0.00,Wunderground v.1.15,2013-05-30 12:49:00,
2013-05-30 08:50:00,77.9,66.1,30.14,WNW,296,1.0,5.0,67,0.00,,,0.00,Wunderground v.1.15,2013-05-30 12:50:00,
2013-05-30 08:51:00,77.9,66.1,30.14,WNW,296,2.0,5.0,67,0.00,,,0.00,Wunderground v.1.15,2013-05-30 12:51:00,
2013-05-30 08:52:00,77.9,66.5,30.14,WNW,297,0.0,5.0,68,0.00,,,0.00,Wunderground v.1.15,2013-05-30 12:52:00,
2013-05-30 08:54:00,78.1,66.7,30.14,SW,221,0.0,5.0,68,0.00,,,0.00,Wunderground v.1.15,2013-05-30 12:54:00,
2013-05-30 08:56:00,78.1,66.7,30.14,WNW,289,0.0,5.0,68,0.00,,,0.00,Wunderground v.1.15,2013-05-30 12:56:00,
2013-05-30 08:57:00,78.3,66.9,30.14,WNW,289,0.0,5.0,68,0.00,,,0.00,Wunderground v.1.15,2013-05-30 12:57:00,
2013-05-30 09:00:00,78.5,66.6,30.14,NW,306,6.0,6.0,67,0.00,,,0.00,Wunderground v.1.15,2013-05-30 13:00:00,
2013-05-30 09:01:00,78.6,66.3,30.14,WNW,301,2.0,6.0,66,0.00,,,0.00,Wunderground v.1.15,2013-05-30 13:01:00,
2013-05-30 09:02:00,78.8,66.5,30.14,NW,311,0.0,6.0,66,0.00,,,0.00,Wunderground v.1.15,2013-05-30 13:02:00,
2013-05-30 09:03:00,78.8,66.5,30.14,NW,311,1.0,6.0,66,0.00,,,0.00,Wunderground v.1.15,2013-05-30 13:03:00,
2013-05-30 09:05:00,79.0,66.7,30.14,WNW,288,6.0,10.0,66,0.00,,,0.00,Wunderground v.1.15,2013-05-30 13:05:00,
2013-05-30 09:06:00,79.2,66.4,30.14,WNW,288,2.0,10.0,65,0.00,,,0.00,Wunderground v.1.15,2013-05-30 13:06:00,
2013-05-30 09:08:00,79.4,67.0,30.14,NW,305,0.0,10.0,66,0.00,,,0.00,Wunderground v.1.15,2013-05-30 13:08:00,
2013-05-30 09:10:00,79.6,66.8,30.14,WNW,299,8.0,8.0,65,0.00,,,0.00,Wunderground v.1.15,2013-05-30 13:10:00,
2013-05-30 09:11:00,79.6,66.3,30.14,NW,313,5.0,9.0,64,0.00,,,0.00,Wunderground v.1.15,2013-05-30 13:11:00,
2013-05-30 09:13:00,79.8,66.5,30.14,SSW,207,3.0,9.0,64,0.00,,,0.00,Wunderground v.1.15,2013-05-30 13:13:00,
2013-05-30 09:15:00,79.9,66.6,30.14,NW,320,0.0,9.0,64,0.00,,,0.00,Wunderground v.1.15,2013-05-30 13:15:00,
2013-05-30 09:16:00,79.9,66.6,30.14,NW,320,1.0,9.0,64,0.00,,,0.00,Wunderground v.1.15,2013-05-30 13:16:00,
2013-05-30 09:18:00,80.3,67.5,30.14,NW,320,0.0,9.0,65,0.00,,,0.00,Wunderground v.1.15,2013-05-30 13:18:00,
2013-05-30 09:21:00,80.5,67.2,30.14,NW,320,5.0,6.0,64,0.00,,,0.00,Wunderground v.1.15,2013-05-30 13:21:00,
2013-05-30 09:22:00,80.5,66.7,30.14,NW,313,3.0,6.0,63,0.00,,,0.00,Wunderground v.1.15,2013-05-30 13:22:00,
2013-05-30 09:23:00,80.5,66.7,30.14,SW,228,1.0,6.0,63,0.00,,,0.00,Wunderground v.1.15,2013-05-30 13:23:00,
2013-05-30 09:27:00,80.7,66.5,30.14,WNW,302,1.0,10.0,62,0.00,,,0.00,Wunderground v.1.15,2013-05-30 13:27:00,
2013-05-30 09:28:00,80.9,66.2,30.14,NW,305,2.0,10.0,61,0.00,,,0.00,Wunderground v.1.15,2013-05-30 13:28:00,
2013-05-30 09:29:00,80.9,66.2,30.14,NW,306,1.0,10.0,61,0.00,,,0.00,Wunderground v.1.15,2013-05-30 13:29:00,
2013-05-30 09:32:00,81.1,66.4,30.14,WNW,283,3.0,7.0,61,0.00,,,0.00,Wunderground v.1.15,2013-05-30 13:32:00,
2013-05-30 09:33:00,81.2,66.5,30.14,SW,223,2.0,7.0,61,0.00,,,0.00,Wunderground v.1.15,2013-05-30 13:33:00,
2013-05-30 09:34:00,81.2,66.5,30.14,SW,223,2.0,7.0,61,0.00,,,0.00,Wunderground v.1.15,2013-05-30 13:34:00,
2013-05-30 09:37:00,81.4,66.7,30.14,SW,228,0.0,7.0,61,0.00,,,0.00,Wunderground v.1.15,2013-05-30 13:37:00,
2013-05-30 09:39:00,81.6,66.8,30.14,NW,309,6.0,7.0,61,0.00,,,0.00,Wunderground v.1.15,2013-05-30 13:39:00,
2013-05-30 09:40:00,81.6,66.4,30.14,NW,306,1.0,2.0,60,0.00,,,0.00,Wunderground v.1.15,2013-05-30 13:40:00,
2013-05-30 09:42:00,81.8,67.0,30.14,West,269,0.0,3.0,61,0.00,,,0.00,Wunderground v.1.15,2013-05-30 13:42:00,
2013-05-30 09:45:00,82.0,66.3,30.14,SW,235,0.0,3.0,59,0.00,,,0.00,Wunderground v.1.15,2013-05-30 13:45:00,
2013-05-30 09:47:00,82.0,66.3,30.14,NW,306,4.0,11.0,59,0.00,,,0.00,Wunderground v.1.15,2013-05-30 13:47:00,
2013-05-30 09:48:00,82.0,66.3,30.14,NW,305,4.0,11.0,59,0.00,,,0.00,Wunderground v.1.15,2013-05-30 13:48:00,
2013-05-30 09:50:00,82.2,66.9,30.14,WNW,302,0.0,2.0,60,0.00,,,0.00,Wunderground v.1.15,2013-05-30 13:50:00,
2013-05-30 09:51:00,82.4,67.1,30.14,WNW,302,1.0,2.0,60,0.00,,,0.00,Wunderground v.1.15,2013-05-30 13:51:00,
2013-05-30 09:53:00,82.6,66.3,30.14,NW,304,1.0,3.0,58,0.00,,,0.00,Wunderground v.1.15,2013-05-30 13:53:00,
2013-05-30 09:54:00,82.8,66.5,30.14,NW,304,2.0,3.0,58,0.00,,,0.00,Wunderground v.1.15,2013-05-30 13:54:00,
2013-05-30 09:56:00,83.0,66.2,30.14,WSW,253,2.0,4.0,57,0.00,,,0.00,Wunderground v.1.15,2013-05-30 13:56:00,
2013-05-30 09:58:00,83.2,65.9,30.14,West,267,0.0,7.0,56,0.00,,,0.00,Wunderground v.1.15,2013-05-30 13:58:00,
2013-05-30 09:59:00,83.2,65.9,30.14,WNW,301,4.0,4.0,56,0.00,,,0.00,Wunderground v.1.15,2013-05-30 13:59:00,
2013-05-30 10:02:00,83.4,66.1,30.14,West,263,0.0,5.0,56,0.00,,,0.00,Wunderground v.1.15,2013-05-30 14:02:00,
2013-05-30 10:03:00,83.8,66.4,30.14,West,263,0.0,5.0,56,0.00,,,0.00,Wunderground v.1.15,2013-05-30 14:03:00,
2013-05-30 10:04:00,83.8,66.4,30.14,West,263,0.0,5.0,56,0.00,,,0.00,Wunderground v.1.15,2013-05-30 14:04:00,
2013-05-30 10:05:00,84.0,66.1,30.14,West,281,0.0,5.0,55,0.00,,,0.00,Wunderground v.1.15,2013-05-30 14:05:00,
2013-05-30 10:07:00,84.0,65.6,30.14,WNW,290,0.0,7.0,54,0.00,,,0.00,Wunderground v.1.15,2013-05-30 14:07:00,
2013-05-30 10:08:00,84.0,65.6,30.14,North,360,2.0,7.0,54,0.00,,,0.00,Wunderground v.1.15,2013-05-30 14:08:00,
2013-05-30 10:09:00,84.1,65.7,30.14,NNW,343,1.0,7.0,54,0.00,,,0.00,Wunderground v.1.15,2013-05-30 14:09:00,
2013-05-30 10:10:00,84.3,66.9,30.14,NNW,343,0.0,2.0,56,0.00,,,0.00,Wunderground v.1.15,2013-05-30 14:10:00,
2013-05-30 10:12:00,84.3,65.8,30.14,SSW,202,0.0,4.0,54,0.00,,,0.00,Wunderground v.1.15,2013-05-30 14:12:00,
2013-05-30 10:13:00,84.3,65.8,30.14,SW,215,0.0,4.0,54,0.00,,,0.00,Wunderground v.1.15,2013-05-30 14:13:00,
2013-05-30 10:14:00,84.5,66.0,30.14,SW,215,1.0,4.0,54,0.00,,,0.00,Wunderground v.1.15,2013-05-30 14:14:00,
2013-05-30 10:15:00,84.5,66.0,30.14,SW,217,1.0,4.0,54,0.00,,,0.00,Wunderground v.1.15,2013-05-30 14:15:00,
2013-05-30 10:17:00,84.5,64.9,30.14,WSW,250,0.0,4.0,52,0.00,,,0.00,Wunderground v.1.15,2013-05-30 14:17:00,
2013-05-30 10:18:00,84.7,66.2,30.13,WSW,250,0.0,4.0,54,0.00,,,0.00,Wunderground v.1.15,2013-05-30 14:18:00,
2013-05-30 10:19:00,84.7,66.2,30.13,WSW,250,0.0,4.0,54,0.00,,,0.00,Wunderground v.1.15,2013-05-30 14:19:00,
2013-05-30 10:21:00,84.9,66.4,30.14,WSW,250,1.0,2.0,54,0.00,,,0.00,Wunderground v.1.15,2013-05-30 14:21:00,
2013-05-30 10:22:00,84.9,65.3,30.13,SSW,194,0.0,4.0,52,0.00,,,0.00,Wunderground v.1.15,2013-05-30 14:22:00,
2013-05-30 10:23:00,85.3,66.2,30.13,SSW,194,1.0,4.0,53,0.00,,,0.00,Wunderground v.1.15,2013-05-30 14:23:00,
2013-05-30 10:24:00,85.3,66.8,30.14,WNW,292,3.0,4.0,54,0.00,,,0.00,Wunderground v.1.15,2013-05-30 14:24:00,
2013-05-30 10:25:00,85.3,66.8,30.14,WNW,292,2.0,4.0,54,0.00,,,0.00,Wunderground v.1.15,2013-05-30 14:25:00,
2013-05-30 10:26:00,85.5,65.3,30.13,WNW,290,0.0,4.0,51,0.00,,,0.00,Wunderground v.1.15,2013-05-30 14:26:00,
2013-05-30 10:27:00,85.5,64.7,30.14,WSW,249,2.0,4.0,50,0.00,,,0.00,Wunderground v.1.15,2013-05-30 14:27:00,
2013-05-30 10:29:00,85.5,64.2,30.14,WNW,303,5.0,5.0,49,0.00,,,0.00,Wunderground v.1.15,2013-05-30 14:29:00,
2013-05-30 10:30:00,85.5,64.2,30.14,WNW,302,4.0,4.0,49,0.00,,,0.00,Wunderground v.1.15,2013-05-30 14:30:00,
2013-05-30 10:31:00,85.5,64.2,30.14,NW,312,2.0,6.0,49,0.00,,,0.00,Wunderground v.1.15,2013-05-30 14:31:00,
2013-05-30 10:33:00,85.5,64.7,30.13,WNW,298,3.0,6.0,50,0.00,,,0.00,Wunderground v.1.15,2013-05-30 14:33:00,
2013-05-30 10:34:00,85.3,64.6,30.13,WNW,300,1.0,6.0,50,0.00,,,0.00,Wunderground v.1.15,2013-05-30 14:34:00,
2013-05-30 10:35:00,85.5,64.7,30.13,WNW,300,0.0,6.0,50,0.00,,,0.00,Wunderground v.1.15,2013-05-30 14:35:00,
2013-05-30 10:36:00,85.5,64.7,30.13,WNW,300,1.0,6.0,50,0.00,,,0.00,Wunderground v.1.15,2013-05-30 14:36:00,
2013-05-30 10:38:00,85.7,65.5,30.13,SW,223,5.0,6.0,51,0.00,,,0.00,Wunderground v.1.15,2013-05-30 14:38:00,
2013-05-30 10:39:00,85.7,63.8,30.14,SW,231,3.0,6.0,48,0.00,,,0.00,Wunderground v.1.15,2013-05-30 14:39:00,
2013-05-30 10:40:00,85.7,63.8,30.14,SW,233,1.0,2.0,48,0.00,,,0.00,Wunderground v.1.15,2013-05-30 14:40:00,
2013-05-30 10:42:00,85.7,64.3,30.14,NNW,330,2.0,3.0,49,0.00,,,0.00,Wunderground v.1.15,2013-05-30 14:42:00,
2013-05-30 10:43:00,85.9,64.5,30.13,NW,304,3.0,5.0,49,0.00,,,0.00,Wunderground v.1.15,2013-05-30 14:43:00,
2013-05-30 10:44:00,85.9,63.9,30.13,WSW,250,1.0,5.0,48,0.00,,,0.00,Wunderground v.1.15,2013-05-30 14:44:00,
2013-05-30 10:46:00,86.1,64.1,30.13,WNW,302,1.0,5.0,48,0.00,,,0.00,Wunderground v.1.15,2013-05-30 14:46:00,
2013-05-30 10:47:00,86.3,64.9,30.13,NW,304,1.0,5.0,49,0.00,,,0.00,Wunderground v.1.15,2013-05-30 14:47:00,
2013-05-30 10:48:00,86.5,64.5,30.13,NW,304,1.0,5.0,48,0.00,,,0.00,Wunderground v.1.15,2013-05-30 14:48:00,
2013-05-30 10:49:00,86.5,65.1,30.13,West,260,0.0,5.0,49,0.00,,,0.00,Wunderground v.1.15,2013-05-30 14:49:00,
2013-05-30 10:51:00,87.0,65.5,30.13,SW,234,4.0,4.0,49,0.00,,,0.00,Wunderground v.1.15,2013-05-30 14:51:00,
2013-05-30 10:52:00,87.0,64.9,30.13,WNW,294,3.0,4.0,48,0.00,,,0.00,Wunderground v.1.15,2013-05-30 14:52:00,
2013-05-30 10:53:00,87.0,64.9,30.13,WNW,294,2.0,4.0,48,0.00,,,0.00,Wunderground v.1.15,2013-05-30 14:53:00,
2013-05-30 10:55:00,87.2,65.1,30.13,WNW,296,0.0,4.0,48,0.00,,,0.00,Wunderground v.1.15,2013-05-30 14:55:00,
2013-05-30 10:56:00,87.4,64.7,30.13,WNW,296,0.0,4.0,47,0.00,,,0.00,Wunderground v.1.15,2013-05-30 14:56:00,
2013-05-30 10:58:00,87.4,65.3,30.13,NW,313,4.0,5.0,48,0.00,,,0.00,Wunderground v.1.15,2013-05-30 14:58:00,
2013-05-30 11:01:00,87.6,64.3,30.13,West,274,0.0,2.0,46,0.00,,,0.00,Wunderground v.1.15,2013-05-30 15:01:00,
2013-05-30 11:03:00,87.8,65.1,30.13,West,271,0.0,2.0,47,0.00,,,0.00,Wunderground v.1.15,2013-05-30 15:03:00,
2013-05-30 11:06:00,88.0,64.0,30.14,WSW,243,2.0,5.0,45,0.00,,,0.00,Wunderground v.1.15,2013-05-30 15:06:00,
2013-05-30 11:07:00,88.0,64.6,30.14,NW,306,5.0,5.0,46,0.00,,,0.00,Wunderground v.1.15,2013-05-30 15:07:00,
2013-05-30 11:08:00,87.8,63.8,30.13,NW,309,4.0,7.0,45,0.00,,,0.00,Wunderground v.1.15,2013-05-30 15:08:00,
2013-05-30 11:10:00,87.8,65.7,30.13,NW,313,1.0,2.0,48,0.00,,,0.00,Wunderground v.1.15,2013-05-30 15:10:00,
2013-05-30 11:12:00,87.8,64.4,30.13,NW,308,4.0,5.0,46,0.00,,,0.00,Wunderground v.1.15,2013-05-30 15:12:00,
2013-05-30 11:13:00,87.8,63.8,30.14,NW,308,2.0,5.0,45,0.00,,,0.00,Wunderground v.1.15,2013-05-30 15:13:00,
2013-05-30 11:14:00,87.8,63.8,30.13,West,264,2.0,5.0,45,0.00,,,0.00,Wunderground v.1.15,2013-05-30 15:14:00,
2013-05-30 11:15:00,87.8,63.8,30.13,West,264,2.0,5.0,45,0.00,,,0.00,Wunderground v.1.15,2013-05-30 15:15:00,
2013-05-30 11:17:00,87.8,64.4,30.13,West,265,1.0,5.0,46,0.00,,,0.00,Wunderground v.1.15,2013-05-30 15:17:00,
2013-05-30 11:18:00,88.0,64.6,30.13,SW,223,5.0,5.0,46,0.00,,,0.00,Wunderground v.1.15,2013-05-30 15:18:00,
2013-05-30 11:19:00,88.0,64.0,30.13,WNW,285,7.0,7.0,45,0.00,,,0.00,Wunderground v.1.15,2013-05-30 15:19:00,
2013-05-30 11:20:00,88.0,64.0,30.14,WNW,295,3.0,3.0,45,0.00,,,0.00,Wunderground v.1.15,2013-05-30 15:20:00,
2013-05-30 11:21:00,88.0,64.0,30.14,WNW,302,7.0,7.0,45,0.00,,,0.00,Wunderground v.1.15,2013-05-30 15:21:00,
2013-05-30 11:23:00,87.6,63.6,30.14,NW,305,1.0,8.0,45,0.00,,,0.00,Wunderground v.1.15,2013-05-30 15:23:00,
2013-05-30 11:24:00,87.6,63.6,30.14,SW,219,0.0,8.0,45,0.00,,,0.00,Wunderground v.1.15,2013-05-30 15:24:00,
2013-05-30 11:25:00,87.6,64.3,30.14,SW,220,0.0,8.0,46,0.00,,,0.00,Wunderground v.1.15,2013-05-30 15:25:00,
2013-05-30 11:26:00,87.8,65.1,30.14,SW,220,0.0,8.0,47,0.00,,,0.00,Wunderground v.1.15,2013-05-30 15:26:00,
2013-05-30 11:28:00,88.0,64.6,30.14,SW,220,1.0,8.0,46,0.00,,,0.00,Wunderground v.1.15,2013-05-30 15:28:00,
2013-05-30 11:29:00,88.2,64.8,30.14,SW,221,1.0,8.0,46,0.00,,,0.00,Wunderground v.1.15,2013-05-30 15:29:00,
2013-05-30 11:30:00,88.2,63.5,30.13,NW,317,2.0,4.0,44,0.00,,,0.00,Wunderground v.1.15,2013-05-30 15:30:00,
2013-05-30 11:31:00,88.4,64.4,30.13,NW,319,2.0,5.0,45,0.00,,,0.00,Wunderground v.1.15,2013-05-30 15:31:00,
2013-05-30 11:33:00,88.4,64.4,30.13,NW,319,0.0,5.0,45,0.00,,,0.00,Wunderground v.1.15,2013-05-30 15:33:00,
2013-05-30 11:34:00,88.4,65.0,30.13,NW,319,0.0,5.0,46,0.00,,,0.00,Wunderground v.1.15,2013-05-30 15:34:00,
2013-05-30 11:36:00,88.6,64.5,30.13,NW,316,2.0,5.0,45,0.00,,,0.00,Wunderground v.1.15,2013-05-30 15:36:00,
2013-05-30 11:37:00,88.6,64.5,30.13,NW,316,0.0,5.0,45,0.00,,,0.00,Wunderground v.1.15,2013-05-30 15:37:00,
2013-05-30 11:39:00,89.0,64.3,30.13,NNW,346,1.0,5.0,44,0.00,,,0.00,Wunderground v.1.15,2013-05-30 15:39:00,
2013-05-30 11:41:00,89.3,63.9,30.13,WSW,254,0.0,4.0,43,0.00,,,0.00,Wunderground v.1.15,2013-05-30 15:41:00,
2013-05-30 11:42:00,89.5,64.0,30.13,WSW,254,0.0,4.0,43,0.00,,,0.00,Wunderground v.1.15,2013-05-30 15:42:00,
2013-05-30 11:44:00,89.7,64.9,30.13,SW,215,3.0,4.0,44,0.00,,,0.00,Wunderground v.1.15,2013-05-30 15:44:00,
2013-05-30 11:45:00,89.7,64.9,30.13,SW,225,4.0,5.0,44,0.00,,,0.00,Wunderground v.1.15,2013-05-30 15:45:00,
2013-05-30 11:46:00,89.9,64.4,30.13,SW,225,0.0,5.0,43,0.00,,,0.00,Wunderground v.1.15,2013-05-30 15:46:00,
2013-05-30 11:47:00,90.1,65.9,30.13,SW,225,1.0,5.0,45,0.00,,,0.00,Wunderground v.1.15,2013-05-30 15:47:00,
2013-05-30 11:50:00,90.1,62.5,30.13,SW,226,0.0,1.0,40,0.00,,,0.00,Wunderground v.1.15,2013-05-30 15:50:00,
2013-05-30 11:52:00,90.1,62.5,30.13,NW,306,4.0,5.0,40,0.00,,,0.00,Wunderground v.1.15,2013-05-30 15:52:00,
2013-05-30 11:53:00,90.3,62.7,30.13,NW,306,0.0,5.0,40,0.00,,,0.00,Wunderground v.1.15,2013-05-30 15:53:00,
2013-05-30 11:55:00,90.1,63.2,30.13,North,5,1.0,5.0,41,0.00,,,0.00,Wunderground v.1.15,2013-05-30 15:55:00,
2013-05-30 11:58:00,90.1,61.1,30.13,NE,43,0.0,5.0,38,0.00,,,0.00,Wunderground v.1.15,2013-05-30 15:58:00,
2013-05-30 12:00:00,89.9,60.9,30.13,West,268,3.0,5.0,38,0.00,,,0.00,Wunderground v.1.15,2013-05-30 16:00:00,
2013-05-30 12:01:00,89.9,60.9,30.13,West,269,0.0,5.0,38,0.00,,,0.00,Wunderground v.1.15,2013-05-30 16:01:00,
2013-05-30 12:03:00,89.9,60.9,30.13,West,266,3.0,5.0,38,0.00,,,0.00,Wunderground v.1.15,2013-05-30 16:03:00,
2013-05-30 12:06:00,89.9,60.9,30.13,SW,234,0.0,6.0,38,0.00,,,0.00,Wunderground v.1.15,2013-05-30 16:06:00,
2013-05-30 12:08:00,89.7,60.7,30.13,SW,232,0.0,7.0,38,0.00,,,0.00,Wunderground v.1.15,2013-05-30 16:08:00,
2013-05-30 12:09:00,89.7,60.7,30.13,SW,232,0.0,7.0,38,0.00,,,0.00,Wunderground v.1.15,2013-05-30 16:09:00,
2013-05-30 12:11:00,89.7,60.7,30.13,SW,230,0.0,4.0,38,0.00,,,0.00,Wunderground v.1.15,2013-05-30 16:11:00,
2013-05-30 12:14:00,90.1,63.2,30.13,SW,236,2.0,4.0,41,0.00,,,0.00,Wunderground v.1.15,2013-05-30 16:14:00,
2013-05-30 12:15:00,89.9,62.3,30.13,SW,233,3.0,5.0,40,0.00,,,0.00,Wunderground v.1.15,2013-05-30 16:15:00,
2013-05-30 12:16:00,89.9,62.3,30.13,NW,309,2.0,6.0,40,0.00,,,0.00,Wunderground v.1.15,2013-05-30 16:16:00,
2013-05-30 12:19:00,90.1,61.1,30.13,WNW,291,1.0,6.0,38,0.00,,,0.00,Wunderground v.1.15,2013-05-30 16:19:00,
2013-05-30 12:20:00,90.3,61.2,30.13,WNW,291,0.0,2.0,38,0.00,,,0.00,Wunderground v.1.15,2013-05-30 16:20:00,
2013-05-30 12:21:00,90.7,62.3,30.13,WNW,288,1.0,2.0,39,0.00,,,0.00,Wunderground v.1.15,2013-05-30 16:21:00,
2013-05-30 12:24:00,91.2,61.3,30.13,South,185,1.0,4.0,37,0.00,,,0.00,Wunderground v.1.15,2013-05-30 16:24:00,
2013-05-30 12:25:00,91.2,61.3,30.13,South,186,0.0,4.0,37,0.00,,,0.00,Wunderground v.1.15,2013-05-30 16:25:00,
2013-05-30 12:27:00,91.4,61.5,30.13,South,188,0.0,4.0,37,0.00,,,0.00,Wunderground v.1.15,2013-05-30 16:27:00,
2013-05-30 12:29:00,91.6,62.4,30.13,SSW,193,0.0,4.0,38,0.00,,,0.00,Wunderground v.1.15,2013-05-30 16:29:00,
2013-05-30 12:30:00,91.6,63.1,30.13,SSW,193,0.0,1.0,39,0.00,,,0.00,Wunderground v.1.15,2013-05-30 16:30:00,
2013-05-30 12:32:00,91.8,61.8,30.13,SW,227,1.0,3.0,37,0.00,,,0.00,Wunderground v.1.15,2013-05-30 16:32:00,
2013-05-30 12:34:00,91.6,61.6,30.13,WSW,242,2.0,3.0,37,0.00,,,0.00,Wunderground v.1.15,2013-05-30 16:34:00,
2013-05-30 12:35:00,91.6,61.6,30.13,WSW,244,4.0,4.0,37,0.00,,,0.00,Wunderground v.1.15,2013-05-30 16:35:00,
2013-05-30 12:36:00,91.4,61.5,30.13,SW,234,0.0,5.0,37,0.00,,,0.00,Wunderground v.1.15,2013-05-30 16:36:00,
2013-05-30 12:38:00,91.2,61.3,30.13,WSW,249,3.0,5.0,37,0.00,,,0.00,Wunderground v.1.15,2013-05-30 16:38:00,
2013-05-30 12:40:00,91.2,62.0,30.13,WNW,290,2.0,2.0,38,0.00,,,0.00,Wunderground v.1.15,2013-05-30 16:40:00,
2013-05-30 12:41:00,91.2,60.5,30.13,SSW,193,1.0,6.0,36,0.00,,,0.00,Wunderground v.1.15,2013-05-30 16:41:00,
2013-05-30 12:43:00,91.2,61.3,30.13,SSW,193,0.0,6.0,37,0.00,,,0.00,Wunderground v.1.15,2013-05-30 16:43:00,
2013-05-30 12:45:00,91.2,61.3,30.13,SSW,194,1.0,6.0,37,0.00,,,0.00,Wunderground v.1.15,2013-05-30 16:45:00,
2013-05-30 12:46:00,91.2,61.3,30.13,SW,217,2.0,6.0,37,0.00,,,0.00,Wunderground v.1.15,2013-05-30 16:46:00,
2013-05-30 12:48:00,91.2,61.3,30.13,SSW,211,1.0,6.0,37,0.00,,,0.00,Wunderground v.1.15,2013-05-30 16:48:00,
2013-05-30 12:50:00,91.2,61.3,30.13,WNW,290,4.0,13.0,37,0.00,,,0.00,Wunderground v.1.15,2013-05-30 16:50:00,
2013-05-30 12:51:00,91.2,61.3,30.13,WNW,296,3.0,13.0,37,0.00,,,0.00,Wunderground v.1.15,2013-05-30 16:51:00,
2013-05-30 12:54:00,91.0,61.1,30.13,West,264,3.0,13.0,37,0.00,,,0.00,Wunderground v.1.15,2013-05-30 16:54:00,
2013-05-30 12:56:00,90.7,60.8,30.13,WNW,303,4.0,13.0,37,0.00,,,0.00,Wunderground v.1.15,2013-05-30 16:56:00,
2013-05-30 12:59:00,90.7,60.8,30.13,WNW,299,1.0,13.0,37,0.00,,,0.00,Wunderground v.1.15,2013-05-30 16:59:00,
2013-05-30 13:01:00,91.0,60.3,30.12,NNW,329,3.0,6.0,36,0.00,,,0.00,Wunderground v.1.15,2013-05-30 17:01:00,
2013-05-30 13:02:00,91.0,59.5,30.12,SW,220,2.0,6.0,35,0.00,,,0.00,Wunderground v.1.15,2013-05-30 17:02:00,
2013-05-30 13:04:00,91.0,60.3,30.12,WSW,250,0.0,6.0,36,0.00,,,0.00,Wunderground v.1.15,2013-05-30 17:04:00,
2013-05-30 13:06:00,91.2,61.3,30.12,NNW,327,2.0,6.0,37,0.00,,,0.00,Wunderground v.1.15,2013-05-30 17:06:00,
2013-05-30 13:08:00,91.4,59.9,30.12,West,259,0.0,6.0,35,0.00,,,0.00,Wunderground v.1.15,2013-05-30 17:08:00,
2013-05-30 13:09:00,91.6,60.1,30.12,SSW,209,3.0,6.0,35,0.00,,,0.00,Wunderground v.1.15,2013-05-30 17:09:00,
2013-05-30 13:10:00,91.6,60.9,30.12,SSW,197,3.0,3.0,36,0.00,,,0.00,Wunderground v.1.15,2013-05-30 17:10:00,
2013-05-30 13:11:00,91.6,60.1,30.12,SW,227,3.0,4.0,35,0.00,,,0.00,Wunderground v.1.15,2013-05-30 17:11:00,
2013-05-30 13:12:00,91.6,61.6,30.12,SW,225,1.0,4.0,37,0.00,,,0.00,Wunderground v.1.15,2013-05-30 17:12:00,
2013-05-30 13:13:00,91.6,60.1,30.12,West,273,0.0,5.0,35,0.00,,,0.00,Wunderground v.1.15,2013-05-30 17:13:00,
2013-05-30 13:15:00,91.6,60.1,30.12,WSW,258,3.0,5.0,35,0.00,,,0.00,Wunderground v.1.15,2013-05-30 17:15:00,
2013-05-30 13:16:00,91.4,59.9,30.12,SE,127,1.0,12.0,35,0.00,,,0.00,Wunderground v.1.15,2013-05-30 17:16:00,
2013-05-30 13:19:00,91.4,59.9,30.12,West,276,2.0,12.0,35,0.00,,,0.00,Wunderground v.1.15,2013-05-30 17:19:00,
2013-05-30 13:20:00,91.4,60.7,30.12,WSW,245,2.0,3.0,36,0.00,,,0.00,Wunderground v.1.15,2013-05-30 17:20:00,
2013-05-30 13:22:00,91.2,60.5,30.12,WNW,301,4.0,10.0,36,0.00,,,0.00,Wunderground v.1.15,2013-05-30 17:22:00,
2013-05-30 13:24:00,91.0,59.5,30.12,WNW,297,6.0,11.0,35,0.00,,,0.00,Wunderground v.1.15,2013-05-30 17:24:00,
2013-05-30 13:25:00,90.7,59.3,30.12,WNW,299,5.0,11.0,35,0.00,,,0.00,Wunderground v.1.15,2013-05-30 17:25:00,
2013-05-30 13:26:00,90.7,59.3,30.12,NW,304,1.0,11.0,35,0.00,,,0.00,Wunderground v.1.15,2013-05-30 17:26:00,
2013-05-30 13:27:00,90.7,60.1,30.12,WSW,250,2.0,11.0,36,0.00,,,0.00,Wunderground v.1.15,2013-05-30 17:27:00,
2013-05-30 13:29:00,90.7,59.3,30.12,NW,314,1.0,11.0,35,0.00,,,0.00,Wunderground v.1.15,2013-05-30 17:29:00,
2013-05-30 13:30:00,91.0,60.3,30.12,NW,315,7.0,7.0,36,0.00,,,0.00,Wunderground v.1.15,2013-05-30 17:30:00,
2013-05-30 13:31:00,91.0,60.3,30.12,West,276,6.0,15.0,36,0.00,,,0.00,Wunderground v.1.15,2013-05-30 17:31:00,
2013-05-30 13:32:00,90.7,58.5,30.12,NW,309,3.0,15.0,34,0.00,,,0.00,Wunderground v.1.15,2013-05-30 17:32:00,
2013-05-30 13:33:00,90.7,58.5,30.12,NNW,346,6.0,15.0,34,0.00,,,0.00,Wunderground v.1.15,2013-05-30 17:33:00,
2013-05-30 13:35:00,90.7,59.3,30.12,SSE,158,0.0,15.0,35,0.00,,,0.00,Wunderground v.1.15,2013-05-30 17:35:00,
2013-05-30 13:36:00,91.0,59.5,30.12,SW,228,1.0,15.0,35,0.00,,,0.00,Wunderground v.1.15,2013-05-30 17:36:00,
2013-05-30 13:38:00,91.2,58.9,30.12,SW,236,0.0,15.0,34,0.00,,,0.00,Wunderground v.1.15,2013-05-30 17:38:00,
2013-05-30 13:40:00,91.6,58.4,30.12,SW,220,1.0,5.0,33,0.00,,,0.00,Wunderground v.1.15,2013-05-30 17:40:00,
2013-05-30 13:41:00,91.8,60.3,30.12,SW,220,0.0,5.0,35,0.00,,,0.00,Wunderground v.1.15,2013-05-30 17:41:00,
2013-05-30 13:42:00,91.8,60.3,30.11,SW,220,0.0,5.0,35,0.00,,,0.00,Wunderground v.1.15,2013-05-30 17:42:00,
2013-05-30 13:43:00,92.3,60.7,30.12,SSW,198,0.0,5.0,35,0.00,,,0.00,Wunderground v.1.15,2013-05-30 17:43:00,
2013-05-30 13:44:00,92.3,60.7,30.12,SSW,198,0.0,5.0,35,0.00,,,0.00,Wunderground v.1.15,2013-05-30 17:44:00,
2013-05-30 13:46:00,92.5,58.4,30.12,WNW,298,6.0,10.0,32,0.00,,,0.00,Wunderground v.1.15,2013-05-30 17:46:00,
2013-05-30 13:47:00,92.5,57.5,30.11,NW,309,4.0,10.0,31,0.00,,,0.00,Wunderground v.1.15,2013-05-30 17:47:00,
2013-05-30 13:49:00,92.3,59.0,30.11,WNW,297,1.0,10.0,33,0.00,,,0.00,Wunderground v.1.15,2013-05-30 17:49:00,
2013-05-30 13:51:00,92.3,59.0,30.11,SSE,168,0.0,3.0,33,0.00,,,0.00,Wunderground v.1.15,2013-05-30 17:51:00,
2013-05-30 13:52:00,92.3,59.9,30.11,South,173,1.0,3.0,34,0.00,,,0.00,Wunderground v.1.15,2013-05-30 17:52:00,
2013-05-30 13:53:00,92.3,59.9,30.11,WSW,247,1.0,4.0,34,0.00,,,0.00,Wunderground v.1.15,2013-05-30 17:53:00,
2013-05-30 13:54:00,92.5,59.2,30.11,West,259,0.0,4.0,33,0.00,,,0.00,Wunderground v.1.15,2013-05-30 17:54:00,
2013-05-30 13:55:00,92.5,59.2,30.11,West,259,0.0,4.0,33,0.00,,,0.00,Wunderground v.1.15,2013-05-30 17:55:00,
2013-05-30 13:56:00,92.9,61.2,30.12,NNW,335,0.0,4.0,35,0.00,,,0.00,Wunderground v.1.15,2013-05-30 17:56:00,
2013-05-30 13:57:00,92.9,59.6,30.11,NNW,335,0.0,4.0,33,0.00,,,0.00,Wunderground v.1.15,2013-05-30 17:57:00,
2013-05-30 13:58:00,93.2,59.8,30.11,NNW,335,0.0,4.0,33,0.00,,,0.00,Wunderground v.1.15,2013-05-30 17:58:00,
2013-05-30 13:59:00,93.4,61.7,30.11,NNW,333,1.0,4.0,35,0.00,,,0.00,Wunderground v.1.15,2013-05-30 17:59:00,
2013-05-30 14:00:00,93.4,59.1,30.11,SSE,157,1.0,1.0,32,0.00,,,0.00,Wunderground v.1.15,2013-05-30 18:00:00,
2013-05-30 14:02:00,93.8,61.2,30.11,SSE,157,0.0,2.0,34,0.00,,,0.00,Wunderground v.1.15,2013-05-30 18:02:00,
2013-05-30 14:04:00,93.8,64.3,30.11,South,189,1.0,4.0,38,0.00,,,0.00,Wunderground v.1.15,2013-05-30 18:04:00,
2013-05-30 14:05:00,93.4,64.7,30.11,SSE,161,1.0,4.0,39,0.00,,,0.00,Wunderground v.1.15,2013-05-30 18:05:00,
2013-05-30 14:07:00,93.2,66.0,30.11,SSE,165,0.0,4.0,41,0.00,,,0.00,Wunderground v.1.15,2013-05-30 18:07:00,
2013-05-30 14:08:00,93.2,65.3,30.11,ENE,65,1.0,4.0,40,0.00,,,0.00,Wunderground v.1.15,2013-05-30 18:08:00,
2013-05-30 14:09:00,93.2,65.3,30.11,East,96,1.0,4.0,40,0.00,,,0.00,Wunderground v.1.15,2013-05-30 18:09:00,
2013-05-30 14:10:00,92.5,64.7,30.11,SE,143,2.0,3.0,40,0.00,,,0.00,Wunderground v.1.15,2013-05-30 18:10:00,
2013-05-30 14:12:00,91.2,64.9,30.11,SE,144,2.0,5.0,42,0.00,,,0.00,Wunderground v.1.15,2013-05-30 18:12:00,
2013-05-30 14:13:00,90.7,65.8,30.11,SE,144,1.0,5.0,44,0.00,,,0.00,Wunderground v.1.15,2013-05-30 18:13:00,
2013-05-30 14:14:00,90.1,65.2,30.11,SE,144,0.0,5.0,44,0.00,,,0.00,Wunderground v.1.15,2013-05-30 18:14:00,
2013-05-30 14:16:00,89.7,64.9,30.11,South,178,0.0,5.0,44,0.00,,,0.00,Wunderground v.1.15,2013-05-30 18:16:00,
2013-05-30 14:19:00,89.3,64.5,30.11,ENE,59,1.0,5.0,44,0.00,,,0.00,Wunderground v.1.15,2013-05-30 18:19:00,
2013-05-30 14:20:00,88.8,65.4,30.11,SSE,151,2.0,3.0,46,0.00,,,0.00,Wunderground v.1.15,2013-05-30 18:20:00,
2013-05-30 14:21:00,88.6,65.2,30.11,SSE,163,3.0,3.0,46,0.00,,,0.00,Wunderground v.1.15,2013-05-30 18:21:00,
2013-05-30 14:24:00,88.6,65.2,30.11,South,170,0.0,3.0,46,0.00,,,0.00,Wunderground v.1.15,2013-05-30 18:24:00,
2013-05-30 14:25:00,88.6,65.2,30.11,South,170,0.0,3.0,46,0.00,,,0.00,Wunderground v.1.15,2013-05-30 18:25:00,
2013-05-30 14:26:00,88.6,65.2,30.11,South,170,0.0,3.0,46,0.00,,,0.00,Wunderground v.1.15,2013-05-30 18:26:00,
2013-05-30 14:29:00,88.8,64.1,30.11,SE,124,1.0,3.0,44,0.00,,,0.00,Wunderground v.1.15,2013-05-30 18:29:00,
2013-05-30 14:30:00,88.6,64.5,30.11,SE,124,0.0,1.0,45,0.00,,,0.00,Wunderground v.1.15,2013-05-30 18:30:00,
2013-05-30 14:31:00,88.6,64.5,30.11,SE,124,0.0,1.0,45,0.00,,,0.00,Wunderground v.1.15,2013-05-30 18:31:00,
2013-05-30 14:34:00,88.6,65.2,30.11,SSW,195,2.0,4.0,46,0.00,,,0.00,Wunderground v.1.15,2013-05-30 18:34:00,
2013-05-30 14:35:00,88.6,65.2,30.11,South,182,0.0,4.0,46,0.00,,,0.00,Wunderground v.1.15,2013-05-30 18:35:00,
2013-05-30 14:36:00,88.6,65.8,30.11,South,182,0.0,4.0,47,0.00,,,0.00,Wunderground v.1.15,2013-05-30 18:36:00,
2013-05-30 14:37:00,88.4,65.6,30.11,South,182,0.0,4.0,47,0.00,,,0.00,Wunderground v.1.15,2013-05-30 18:37:00,
2013-05-30 14:39:00,88.2,65.4,30.11,SSE,168,4.0,4.0,47,0.00,,,0.00,Wunderground v.1.15,2013-05-30 18:39:00,
2013-05-30 14:40:00,88.2,65.4,30.11,SSE,148,3.0,3.0,47,0.00,,,0.00,Wunderground v.1.15,2013-05-30 18:40:00,
2013-05-30 14:41:00,88.0,65.2,30.11,WNW,292,4.0,4.0,47,0.00,,,0.00,Wunderground v.1.15,2013-05-30 18:41:00,
2013-05-30 14:42:00,88.0,65.8,30.11,SSE,157,1.0,5.0,48,0.00,,,0.00,Wunderground v.1.15,2013-05-30 18:42:00,
2013-05-30 14:45:00,88.0,65.2,30.11,SSE,159,3.0,9.0,47,0.00,,,0.00,Wunderground v.1.15,2013-05-30 18:45:00,
2013-05-30 14:46:00,88.0,65.2,30.11,SE,132,1.0,9.0,47,0.00,,,0.00,Wunderground v.1.15,2013-05-30 18:46:00,
2013-05-30 14:47:00,88.0,65.2,30.11,SE,131,3.0,9.0,47,0.00,,,0.00,Wunderground v.1.15,2013-05-30 18:47:00,
2013-05-30 14:51:00,88.4,65.6,30.11,SSE,154,3.0,6.0,47,0.00,,,0.00,Wunderground v.1.15,2013-05-30 18:51:00,
2013-05-30 14:52:00,88.4,65.6,30.11,SSE,149,11.0,11.0,47,0.00,,,0.00,Wunderground v.1.15,2013-05-30 18:52:00,
2013-05-30 14:56:00,87.6,66.1,30.11,ESE,114,3.0,11.0,49,0.00,,,0.00,Wunderground v.1.15,2013-05-30 18:56:00,
2013-05-30 14:57:00,87.4,65.9,30.11,SE,131,0.0,11.0,49,0.00,,,0.00,Wunderground v.1.15,2013-05-30 18:57:00,
2013-05-30 15:02:00,86.7,65.3,30.11,East,94,5.0,7.0,49,0.00,,,0.00,Wunderground v.1.15,2013-05-30 19:02:00,
2013-05-30 15:03:00,86.7,65.3,30.10,WSW,238,2.0,7.0,49,0.00,,,0.00,Wunderground v.1.15,2013-05-30 19:03:00,
2013-05-30 15:07:00,87.0,66.1,30.10,SSW,193,0.0,7.0,50,0.00,,,0.00,Wunderground v.1.15,2013-05-30 19:07:00,
2013-05-30 15:09:00,87.0,65.5,30.10,SW,221,1.0,7.0,49,0.00,,,0.00,Wunderground v.1.15,2013-05-30 19:09:00,
2013-05-30 15:13:00,86.5,65.1,30.10,South,182,0.0,7.0,49,0.00,,,0.00,Wunderground v.1.15,2013-05-30 19:13:00,
2013-05-30 15:14:00,86.3,64.9,30.10,South,182,1.0,7.0,49,0.00,,,0.00,Wunderground v.1.15,2013-05-30 19:14:00,
2013-05-30 15:18:00,86.1,64.7,30.10,SE,128,4.0,7.0,49,0.00,,,0.00,Wunderground v.1.15,2013-05-30 19:18:00,
2013-05-30 15:19:00,85.9,65.7,30.10,SE,128,0.0,7.0,51,0.00,,,0.00,Wunderground v.1.15,2013-05-30 19:19:00,
2013-05-30 15:20:00,85.9,66.2,30.10,SE,128,0.0,2.0,52,0.00,,,0.00,Wunderground v.1.15,2013-05-30 19:20:00,
2013-05-30 15:24:00,85.7,65.5,30.10,South,174,1.0,3.0,51,0.00,,,0.00,Wunderground v.1.15,2013-05-30 19:24:00,
2013-05-30 15:25:00,85.9,65.7,30.10,South,176,0.0,3.0,51,0.00,,,0.00,Wunderground v.1.15,2013-05-30 19:25:00,
2013-05-30 15:29:00,86.5,65.7,30.10,SSE,159,4.0,4.0,50,0.00,,,0.00,Wunderground v.1.15,2013-05-30 19:29:00,
2013-05-30 15:30:00,86.5,66.2,30.10,ESE,118,0.0,5.0,51,0.00,,,0.00,Wunderground v.1.15,2013-05-30 19:30:00,
2013-05-30 15:35:00,86.1,65.9,30.09,SSE,150,3.0,6.0,51,0.00,,,0.00,Wunderground v.1.15,2013-05-30 19:35:00,
2013-05-30 15:40:00,85.7,64.9,30.09,SSW,211,3.0,4.0,50,0.00,,,0.00,Wunderground v.1.15,2013-05-30 19:40:00,
2013-05-30 15:41:00,85.5,64.7,30.09,SSE,167,2.0,7.0,50,0.00,,,0.00,Wunderground v.1.15,2013-05-30 19:41:00,
2013-05-30 15:45:00,84.9,64.8,30.09,SSE,148,4.0,7.0,51,0.00,,,0.00,Wunderground v.1.15,2013-05-30 19:45:00,
2013-05-30 15:46:00,84.7,65.1,30.09,SSE,148,2.0,7.0,52,0.00,,,0.00,Wunderground v.1.15,2013-05-30 19:46:00,
2013-05-30 15:50:00,84.7,65.1,30.09,SSE,157,0.0,2.0,52,0.00,,,0.00,Wunderground v.1.15,2013-05-30 19:50:00,
2013-05-30 15:51:00,84.9,65.9,30.09,South,176,3.0,3.0,53,0.00,,,0.00,Wunderground v.1.15,2013-05-30 19:51:00,
2013-05-30 15:55:00,84.7,64.6,30.09,SSE,168,0.0,6.0,51,0.00,,,0.00,Wunderground v.1.15,2013-05-30 19:55:00,
2013-05-30 15:56:00,84.3,64.2,30.09,SE,128,0.0,6.0,51,0.00,,,0.00,Wunderground v.1.15,2013-05-30 19:56:00,
2013-05-30 15:57:00,84.1,65.1,30.09,SE,128,0.0,6.0,53,0.00,,,0.00,Wunderground v.1.15,2013-05-30 19:57:00,
2013-05-30 16:00:00,84.3,64.2,30.09,South,173,1.0,6.0,51,0.00,,,0.00,Wunderground v.1.15,2013-05-30 20:00:00,
2013-05-30 16:02:00,84.3,64.2,30.09,South,186,1.0,6.0,51,0.00,,,0.00,Wunderground v.1.15,2013-05-30 20:02:00,
2013-05-30 16:06:00,84.5,64.4,30.09,South,185,1.0,6.0,51,0.00,,,0.00,Wunderground v.1.15,2013-05-30 20:06:00,
2013-05-30 16:07:00,84.3,64.2,30.09,SSE,149,1.0,6.0,51,0.00,,,0.00,Wunderground v.1.15,2013-05-30 20:07:00,
2013-05-30 16:10:00,84.3,64.8,30.09,SE,132,0.0,1.0,52,0.00,,,0.00,Wunderground v.1.15,2013-05-30 20:10:00,
2013-05-30 16:11:00,84.3,65.3,30.09,SE,132,0.0,1.0,53,0.00,,,0.00,Wunderground v.1.15,2013-05-30 20:11:00,
2013-05-30 16:12:00,84.3,65.3,30.09,SE,132,1.0,1.0,53,0.00,,,0.00,Wunderground v.1.15,2013-05-30 20:12:00,
2013-05-30 16:14:00,83.8,64.8,30.09,SE,132,2.0,2.0,53,0.00,,,0.00,Wunderground v.1.15,2013-05-30 20:14:00,
2013-05-30 16:15:00,83.4,65.0,30.09,SE,132,1.0,2.0,54,0.00,,,0.00,Wunderground v.1.15,2013-05-30 20:15:00,
2013-05-30 16:16:00,83.4,64.5,30.09,SE,132,0.0,2.0,53,0.00,,,0.00,Wunderground v.1.15,2013-05-30 20:16:00,
2013-05-30 16:17:00,83.0,65.2,30.09,SE,133,1.0,2.0,55,0.00,,,0.00,Wunderground v.1.15,2013-05-30 20:17:00,
2013-05-30 16:19:00,83.0,64.6,30.09,SE,134,1.0,2.0,54,0.00,,,0.00,Wunderground v.1.15,2013-05-30 20:19:00,
2013-05-30 16:20:00,83.0,64.6,30.09,SE,134,1.0,1.0,54,0.00,,,0.00,Wunderground v.1.15,2013-05-30 20:20:00,
2013-05-30 16:22:00,83.0,64.6,30.09,SE,134,0.0,1.0,54,0.00,,,0.00,Wunderground v.1.15,2013-05-30 20:22:00,
2013-05-30 16:23:00,83.2,64.8,30.09,SE,134,0.0,1.0,54,0.00,,,0.00,Wunderground v.1.15,2013-05-30 20:23:00,
2013-05-30 16:24:00,83.6,64.7,30.09,SE,127,0.0,1.0,53,0.00,,,0.00,Wunderground v.1.15,2013-05-30 20:24:00,
2013-05-30 16:25:00,83.8,65.4,30.09,SE,127,0.0,1.0,54,0.00,,,0.00,Wunderground v.1.15,2013-05-30 20:25:00,
2013-05-30 16:27:00,84.1,65.1,30.09,SE,127,0.0,1.0,53,0.00,,,0.00,Wunderground v.1.15,2013-05-30 20:27:00,
2013-05-30 16:28:00,84.3,64.2,30.09,SE,140,1.0,1.0,51,0.00,,,0.00,Wunderground v.1.15,2013-05-30 20:28:00,
2013-05-30 16:29:00,84.3,64.2,30.09,SE,143,1.0,2.0,51,0.00,,,0.00,Wunderground v.1.15,2013-05-30 20:29:00,
2013-05-30 16:30:00,84.5,64.4,30.09,SE,143,0.0,0.0,51,0.00,,,0.00,Wunderground v.1.15,2013-05-30 20:30:00,
2013-05-30 16:31:00,84.5,64.4,30.09,SE,144,0.0,2.0,51,0.00,,,0.00,Wunderground v.1.15,2013-05-30 20:31:00,
2013-05-30 16:33:00,84.7,64.6,30.09,SE,144,0.0,2.0,51,0.00,,,0.00,Wunderground v.1.15,2013-05-30 20:33:00,
2013-05-30 16:34:00,84.7,64.6,30.09,SE,144,0.0,2.0,51,0.00,,,0.00,Wunderground v.1.15,2013-05-30 20:34:00,
2013-05-30 16:35:00,84.9,64.8,30.09,SE,144,0.0,2.0,51,0.00,,,0.00,Wunderground v.1.15,2013-05-30 20:35:00,
2013-05-30 16:37:00,85.1,64.4,30.09,South,179,0.0,3.0,50,0.00,,,0.00,Wunderground v.1.15,2013-05-30 20:37:00,
2013-05-30 16:38:00,85.3,64.6,30.09,South,174,2.0,3.0,50,0.00,,,0.00,Wunderground v.1.15,2013-05-30 20:38:00,
2013-05-30 16:39:00,85.5,65.3,30.09,South,174,0.0,3.0,51,0.00,,,0.00,Wunderground v.1.15,2013-05-30 20:39:00,
2013-05-30 16:40:00,85.5,64.7,30.09,South,174,0.0,1.0,50,0.00,,,0.00,Wunderground v.1.15,2013-05-30 20:40:00,
2013-05-30 16:42:00,85.7,64.9,30.09,South,174,0.0,1.0,50,0.00,,,0.00,Wunderground v.1.15,2013-05-30 20:42:00,
2013-05-30 16:43:00,85.7,64.9,30.09,South,174,0.0,1.0,50,0.00,,,0.00,Wunderground v.1.15,2013-05-30 20:43:00,
2013-05-30 16:44:00,85.7,64.9,30.09,South,174,0.0,1.0,50,0.00,,,0.00,Wunderground v.1.15,2013-05-30 20:44:00,
2013-05-30 16:46:00,85.5,64.7,30.09,South,174,0.0,1.0,50,0.00,,,0.00,Wunderground v.1.15,2013-05-30 20:46:00,
2013-05-30 16:47:00,85.3,64.6,30.09,South,174,0.0,1.0,50,0.00,,,0.00,Wunderground v.1.15,2013-05-30 20:47:00,
2013-05-30 16:48:00,85.3,64.0,30.09,South,174,0.0,1.0,49,0.00,,,0.00,Wunderground v.1.15,2013-05-30 20:48:00,
2013-05-30 16:50:00,85.3,64.6,30.09,South,174,0.0,0.0,50,0.00,,,0.00,Wunderground v.1.15,2013-05-30 20:50:00,
2013-05-30 16:51:00,84.9,64.8,30.09,SSE,165,3.0,3.0,51,0.00,,,0.00,Wunderground v.1.15,2013-05-30 20:51:00,
2013-05-30 16:52:00,84.7,64.6,30.09,SSE,150,1.0,3.0,51,0.00,,,0.00,Wunderground v.1.15,2013-05-30 20:52:00,
2013-05-30 16:54:00,84.5,64.4,30.09,SSW,209,1.0,3.0,51,0.00,,,0.00,Wunderground v.1.15,2013-05-30 20:54:00,
2013-05-30 16:55:00,84.5,64.4,30.09,SSW,193,0.0,3.0,51,0.00,,,0.00,Wunderground v.1.15,2013-05-30 20:55:00,
2013-05-30 16:56:00,84.5,64.4,30.09,East,79,3.0,3.0,51,0.00,,,0.00,Wunderground v.1.15,2013-05-30 20:56:00,
2013-05-30 16:57:00,84.1,64.6,30.09,East,80,0.0,3.0,52,0.00,,,0.00,Wunderground v.1.15,2013-05-30 20:57:00,
2013-05-30 16:59:00,84.1,64.6,30.09,East,81,1.0,3.0,52,0.00,,,0.00,Wunderground v.1.15,2013-05-30 20:59:00,
2013-05-30 17:00:00,84.0,63.9,30.09,East,81,1.0,2.0,51,0.00,,,0.00,Wunderground v.1.15,2013-05-30 21:00:00,
2013-05-30 17:01:00,83.6,64.1,30.09,ESE,115,0.0,3.0,52,0.00,,,0.00,Wunderground v.1.15,2013-05-30 21:01:00,
2013-05-30 17:03:00,83.0,64.6,30.09,ESE,115,0.0,3.0,54,0.00,,,0.00,Wunderground v.1.15,2013-05-30 21:03:00,
2013-05-30 17:05:00,82.8,64.5,30.09,ESE,115,0.0,3.0,54,0.00,,,0.00,Wunderground v.1.15,2013-05-30 21:05:00,
2013-05-30 17:06:00,82.8,65.0,30.09,ESE,117,0.0,3.0,55,0.00,,,0.00,Wunderground v.1.15,2013-05-30 21:06:00,
2013-05-30 17:08:00,82.8,65.0,30.09,ESE,117,0.0,3.0,55,0.00,,,0.00,Wunderground v.1.15,2013-05-30 21:08:00,
2013-05-30 17:09:00,82.8,65.0,30.09,ESE,117,3.0,3.0,55,0.00,,,0.00,Wunderground v.1.15,2013-05-30 21:09:00,
2013-05-30 17:10:00,82.6,64.8,30.09,ESE,117,0.0,1.0,55,0.00,,,0.00,Wunderground v.1.15,2013-05-30 21:10:00,
2013-05-30 17:11:00,82.6,64.8,30.09,ESE,115,0.0,1.0,55,0.00,,,0.00,Wunderground v.1.15,2013-05-30 21:11:00,
2013-05-30 17:13:00,82.6,64.3,30.09,ESE,115,0.0,1.0,54,0.00,,,0.00,Wunderground v.1.15,2013-05-30 21:13:00,
2013-05-30 17:14:00,82.6,64.8,30.09,ESE,115,0.0,1.0,55,0.00,,,0.00,Wunderground v.1.15,2013-05-30 21:14:00,
2013-05-30 17:15:00,82.6,64.3,30.09,ESE,115,0.0,1.0,54,0.00,,,0.00,Wunderground v.1.15,2013-05-30 21:15:00,
2013-05-30 17:16:00,82.6,64.3,30.09,ESE,115,0.0,1.0,54,0.00,,,0.00,Wunderground v.1.15,2013-05-30 21:16:00,
2013-05-30 17:17:00,82.6,64.3,30.09,ESE,115,1.0,1.0,54,0.00,,,0.00,Wunderground v.1.15,2013-05-30 21:17:00,
2013-05-30 17:18:00,82.2,63.9,30.09,ESE,115,0.0,1.0,54,0.00,,,0.00,Wunderground v.1.15,2013-05-30 21:18:00,
2013-05-30 17:19:00,82.0,63.7,30.09,ESE,115,0.0,1.0,54,0.00,,,0.00,Wunderground v.1.15,2013-05-30 21:19:00,
2013-05-30 17:22:00,81.8,64.1,30.09,ESE,115,0.0,1.0,55,0.00,,,0.00,Wunderground v.1.15,2013-05-30 21:22:00,
2013-05-30 17:23:00,81.8,64.1,30.08,ESE,115,1.0,3.0,55,0.00,,,0.00,Wunderground v.1.15,2013-05-30 21:23:00,
2013-05-30 17:25:00,81.8,64.1,30.08,SSE,155,2.0,3.0,55,0.00,,,0.00,Wunderground v.1.15,2013-05-30 21:25:00,
2013-05-30 17:27:00,81.8,64.6,30.08,SSE,165,2.0,3.0,56,0.00,,,0.00,Wunderground v.1.15,2013-05-30 21:27:00,
2013-05-30 17:29:00,82.2,64.4,30.08,SSE,165,0.0,3.0,55,0.00,,,0.00,Wunderground v.1.15,2013-05-30 21:29:00,
2013-05-30 17:30:00,82.4,64.6,30.08,SSE,165,0.0,0.0,55,0.00,,,0.00,Wunderground v.1.15,2013-05-30 21:30:00,
2013-05-30 17:32:00,82.4,65.1,30.08,SSE,162,0.0,2.0,56,0.00,,,0.00,Wunderground v.1.15,2013-05-30 21:32:00,
2013-05-30 17:34:00,82.2,63.9,30.08,SSE,156,1.0,3.0,54,0.00,,,0.00,Wunderground v.1.15,2013-05-30 21:34:00,
2013-05-30 17:36:00,82.2,64.4,30.08,SSE,156,0.0,3.0,55,0.00,,,0.00,Wunderground v.1.15,2013-05-30 21:36:00,
2013-05-30 17:37:00,82.2,64.4,30.08,SSE,156,0.0,3.0,55,0.00,,,0.00,Wunderground v.1.15,2013-05-30 21:37:00,
2013-05-30 17:40:00,82.4,64.6,30.08,SSE,153,2.0,2.0,55,0.00,,,0.00,Wunderground v.1.15,2013-05-30 21:40:00,
2013-05-30 17:42:00,82.0,64.2,30.08,SSE,153,1.0,2.0,55,0.00,,,0.00,Wunderground v.1.15,2013-05-30 21:42:00,
2013-05-30 17:43:00,81.8,64.6,30.08,SSE,153,0.0,2.0,56,0.00,,,0.00,Wunderground v.1.15,2013-05-30 21:43:00,
2013-05-30 17:45:00,81.8,64.1,30.08,SSE,167,0.0,3.0,55,0.00,,,0.00,Wunderground v.1.15,2013-05-30 21:45:00,
2013-05-30 17:47:00,81.8,64.1,30.08,SSE,167,0.0,3.0,55,0.00,,,0.00,Wunderground v.1.15,2013-05-30 21:47:00,
2013-05-30 17:48:00,81.8,64.1,30.08,SSE,167,0.0,3.0,55,0.00,,,0.00,Wunderground v.1.15,2013-05-30 21:48:00,
2013-05-30 17:50:00,81.6,64.4,30.08,SSE,168,1.0,4.0,56,0.00,,,0.00,Wunderground v.1.15,2013-05-30 21:50:00,
2013-05-30 17:52:00,81.6,64.4,30.08,SSE,168,0.0,4.0,56,0.00,,,0.00,Wunderground v.1.15,2013-05-30 21:52:00,
2013-05-30 17:53:00,81.6,63.9,30.08,SSE,168,0.0,4.0,55,0.00,,,0.00,Wunderground v.1.15,2013-05-30 21:53:00,
2013-05-30 17:55:00,81.6,64.4,30.08,SSE,161,0.0,4.0,56,0.00,,,0.00,Wunderground v.1.15,2013-05-30 21:55:00,
2013-05-30 17:58:00,81.6,64.4,30.08,SSE,156,2.0,4.0,56,0.00,,,0.00,Wunderground v.1.15,2013-05-30 21:58:00,
2013-05-30 17:59:00,81.4,63.7,30.08,SSE,153,1.0,4.0,55,0.00,,,0.00,Wunderground v.1.15,2013-05-30 21:59:00,
2013-05-30 18:01:00,81.2,64.5,30.08,SSE,153,0.0,1.0,57,0.00,,,0.00,Wunderground v.1.15,2013-05-30 22:01:00,
2013-05-30 18:04:00,81.1,63.9,30.07,SSE,153,0.0,1.0,56,0.00,,,0.00,Wunderground v.1.15,2013-05-30 22:04:00,
2013-05-30 18:06:00,80.7,63.5,30.07,SSE,153,1.0,1.0,56,0.00,,,0.00,Wunderground v.1.15,2013-05-30 22:06:00,
2013-05-30 18:09:00,80.3,63.7,30.07,SSE,153,0.0,2.0,57,0.00,,,0.00,Wunderground v.1.15,2013-05-30 22:09:00,
2013-05-30 18:11:00,79.9,63.8,30.07,SSE,153,0.0,1.0,58,0.00,,,0.00,Wunderground v.1.15,2013-05-30 22:11:00,
2013-05-30 18:14:00,79.8,64.2,30.07,SSE,153,0.0,1.0,59,0.00,,,0.00,Wunderground v.1.15,2013-05-30 22:14:00,
2013-05-30 18:17:00,79.8,64.2,30.07,ESE,119,1.0,2.0,59,0.00,,,0.00,Wunderground v.1.15,2013-05-30 22:17:00,
2013-05-30 18:19:00,79.8,64.2,30.07,SE,138,1.0,3.0,59,0.00,,,0.00,Wunderground v.1.15,2013-05-30 22:19:00,
2013-05-30 18:22:00,79.9,64.3,30.07,SE,138,0.0,1.0,59,0.00,,,0.00,Wunderground v.1.15,2013-05-30 22:22:00,
2013-05-30 18:24:00,79.9,64.3,30.07,SE,138,0.0,1.0,59,0.00,,,0.00,Wunderground v.1.15,2013-05-30 22:24:00,
2013-05-30 18:25:00,79.9,64.3,30.07,SE,138,0.0,1.0,59,0.00,,,0.00,Wunderground v.1.15,2013-05-30 22:25:00,
2013-05-30 18:27:00,79.8,63.7,30.07,SE,138,1.0,1.0,58,0.00,,,0.00,Wunderground v.1.15,2013-05-30 22:27:00,
2013-05-30 18:29:00,79.6,64.0,30.07,SE,138,0.0,1.0,59,0.00,,,0.00,Wunderground v.1.15,2013-05-30 22:29:00,
2013-05-30 18:30:00,79.6,64.0,30.07,SE,138,0.0,0.0,59,0.00,,,0.00,Wunderground v.1.15,2013-05-30 22:30:00,
2013-05-30 18:32:00,79.6,64.5,30.07,SE,138,0.0,0.0,60,0.00,,,0.00,Wunderground v.1.15,2013-05-30 22:32:00,
2013-05-30 18:34:00,79.6,64.5,30.07,SE,138,0.0,1.0,60,0.00,,,0.00,Wunderground v.1.15,2013-05-30 22:34:00,
2013-05-30 18:35:00,79.6,64.5,30.07,SE,138,0.0,1.0,60,0.00,,,0.00,Wunderground v.1.15,2013-05-30 22:35:00,
2013-05-30 18:36:00,79.6,64.5,30.07,SE,138,0.0,1.0,60,0.00,,,0.00,Wunderground v.1.15,2013-05-30 22:36:00,
2013-05-30 18:38:00,79.6,64.0,30.07,SE,138,0.0,1.0,59,0.00,,,0.00,Wunderground v.1.15,2013-05-30 22:38:00,
2013-05-30 18:40:00,79.6,64.0,30.07,SE,138,0.0,0.0,59,0.00,,,0.00,Wunderground v.1.15,2013-05-30 22:40:00,
2013-05-30 18:41:00,79.6,64.0,30.07,SE,138,0.0,0.0,59,0.00,,,0.00,Wunderground v.1.15,2013-05-30 22:41:00,
2013-05-30 18:43:00,79.6,64.0,30.07,SE,138,0.0,0.0,59,0.00,,,0.00,Wunderground v.1.15,2013-05-30 22:43:00,
2013-05-30 18:46:00,79.6,64.0,30.07,SE,138,0.0,0.0,59,0.00,,,0.00,Wunderground v.1.15,2013-05-30 22:46:00,
2013-05-30 18:47:00,79.6,64.0,30.07,SE,138,0.0,0.0,59,0.00,,,0.00,Wunderground v.1.15,2013-05-30 22:47:00,
2013-05-30 18:49:00,79.4,63.8,30.07,SE,138,0.0,1.0,59,0.00,,,0.00,Wunderground v.1.15,2013-05-30 22:49:00,
2013-05-30 18:51:00,79.4,63.8,30.07,SE,138,0.0,0.0,59,0.00,,,0.00,Wunderground v.1.15,2013-05-30 22:51:00,
2013-05-30 18:52:00,79.4,64.3,30.07,SE,138,0.0,0.0,60,0.00,,,0.00,Wunderground v.1.15,2013-05-30 22:52:00,
2013-05-30 18:54:00,79.2,64.1,30.07,SE,138,0.0,0.0,60,0.00,,,0.00,Wunderground v.1.15,2013-05-30 22:54:00,
2013-05-30 18:56:00,79.2,64.1,30.07,SE,138,0.0,0.0,60,0.00,,,0.00,Wunderground v.1.15,2013-05-30 22:56:00,
2013-05-30 18:58:00,79.4,64.8,30.07,SE,138,0.0,0.0,61,0.00,,,0.00,Wunderground v.1.15,2013-05-30 22:58:00,
2013-05-30 18:59:00,79.4,64.8,30.07,SE,138,0.0,0.0,61,0.00,,,0.00,Wunderground v.1.15,2013-05-30 22:59:00,
2013-05-30 19:02:00,79.6,65.0,30.07,SE,138,0.0,0.0,61,0.00,,,0.00,Wunderground v.1.15,2013-05-30 23:02:00,
2013-05-30 19:03:00,79.6,65.0,30.07,SE,138,0.0,0.0,61,0.00,,,0.00,Wunderground v.1.15,2013-05-30 23:03:00,
2013-05-30 19:05:00,79.8,65.2,30.07,SE,138,0.0,0.0,61,0.00,,,0.00,Wunderground v.1.15,2013-05-30 23:05:00,
2013-05-30 19:07:00,79.8,65.2,30.07,SE,138,0.0,0.0,61,0.00,,,0.00,Wunderground v.1.15,2013-05-30 23:07:00,
2013-05-30 19:10:00,79.9,65.2,30.07,SE,138,0.0,0.0,61,0.00,,,0.00,Wunderground v.1.15,2013-05-30 23:10:00,
2013-05-30 19:12:00,79.9,64.8,30.07,SE,138,0.0,0.0,60,0.00,,,0.00,Wunderground v.1.15,2013-05-30 23:12:00,
2013-05-30 19:13:00,79.9,64.8,30.07,SE,138,0.0,0.0,60,0.00,,,0.00,Wunderground v.1.15,2013-05-30 23:13:00,
2013-05-30 19:15:00,80.1,65.0,30.07,SE,138,0.0,0.0,60,0.00,,,0.00,Wunderground v.1.15,2013-05-30 23:15:00,
2013-05-30 19:16:00,80.1,65.0,30.07,SE,138,0.0,0.0,60,0.00,,,0.00,Wunderground v.1.15,2013-05-30 23:16:00,
2013-05-30 19:17:00,80.1,65.0,30.07,SE,138,0.0,0.0,60,0.00,,,0.00,Wunderground v.1.15,2013-05-30 23:17:00,
2013-05-30 19:18:00,80.1,65.0,30.07,SE,138,0.0,0.0,60,0.00,,,0.00,Wunderground v.1.15,2013-05-30 23:18:00,
2013-05-30 19:20:00,80.1,65.0,30.07,SE,138,0.0,0.0,60,0.00,,,0.00,Wunderground v.1.15,2013-05-30 23:20:00,
2013-05-30 19:21:00,79.9,65.2,30.07,SE,138,0.0,0.0,61,0.00,,,0.00,Wunderground v.1.15,2013-05-30 23:21:00,
2013-05-30 19:22:00,79.9,65.2,30.07,SE,138,0.0,0.0,61,0.00,,,0.00,Wunderground v.1.15,2013-05-30 23:22:00,
2013-05-30 19:23:00,79.9,65.2,30.07,SE,138,0.0,0.0,61,0.00,,,0.00,Wunderground v.1.15,2013-05-30 23:23:00,
2013-05-30 19:25:00,79.9,65.2,30.07,SE,138,0.0,0.0,61,0.00,,,0.00,Wunderground v.1.15,2013-05-30 23:25:00,
2013-05-30 19:27:00,79.8,65.2,30.07,SE,138,0.0,0.0,61,0.00,,,0.00,Wunderground v.1.15,2013-05-30 23:27:00,
2013-05-30 19:29:00,79.8,65.2,30.07,SE,138,0.0,0.0,61,0.00,,,0.00,Wunderground v.1.15,2013-05-30 23:29:00,
2013-05-30 19:31:00,79.6,65.0,30.08,SE,138,0.0,0.0,61,0.00,,,0.00,Wunderground v.1.15,2013-05-30 23:31:00,
2013-05-30 19:32:00,79.6,65.4,30.07,SE,138,0.0,0.0,62,0.00,,,0.00,Wunderground v.1.15,2013-05-30 23:32:00,
2013-05-30 19:33:00,79.6,65.4,30.08,SE,138,0.0,0.0,62,0.00,,,0.00,Wunderground v.1.15,2013-05-30 23:33:00,
2013-05-30 19:34:00,79.6,65.4,30.07,SE,138,0.0,0.0,62,0.00,,,0.00,Wunderground v.1.15,2013-05-30 23:34:00,
2013-05-30 19:36:00,79.4,65.2,30.08,SE,138,0.0,0.0,62,0.00,,,0.00,Wunderground v.1.15,2013-05-30 23:36:00,
2013-05-30 19:38:00,79.4,65.2,30.08,SE,138,0.0,0.0,62,0.00,,,0.00,Wunderground v.1.15,2013-05-30 23:38:00,
2013-05-30 19:39:00,79.4,65.2,30.08,SE,138,0.0,0.0,62,0.00,,,0.00,Wunderground v.1.15,2013-05-30 23:39:00,
2013-05-30 19:40:00,79.4,65.2,30.08,SE,138,0.0,0.0,62,0.00,,,0.00,Wunderground v.1.15,2013-05-30 23:40:00,
2013-05-30 19:42:00,79.2,65.5,30.08,SE,138,0.0,0.0,63,0.00,,,0.00,Wunderground v.1.15,2013-05-30 23:42:00,
2013-05-30 19:43:00,79.2,65.5,30.08,SE,138,0.0,0.0,63,0.00,,,0.00,Wunderground v.1.15,2013-05-30 23:43:00,
2013-05-30 19:44:00,79.2,65.5,30.08,SE,138,0.0,0.0,63,0.00,,,0.00,Wunderground v.1.15,2013-05-30 23:44:00,
2013-05-30 19:45:00,79.2,65.5,30.07,SE,138,0.0,1.0,63,0.00,,,0.00,Wunderground v.1.15,2013-05-30 23:45:00,
2013-05-30 19:48:00,79.0,65.3,30.08,SE,138,0.0,1.0,63,0.00,,,0.00,Wunderground v.1.15,2013-05-30 23:48:00,
2013-05-30 19:49:00,79.0,65.3,30.08,SE,138,0.0,1.0,63,0.00,,,0.00,Wunderground v.1.15,2013-05-30 23:49:00,
2013-05-30 19:50:00,79.0,65.3,30.08,SE,138,0.0,0.0,63,0.00,,,0.00,Wunderground v.1.15,2013-05-30 23:50:00,
2013-05-30 19:51:00,79.0,65.3,30.08,SE,138,0.0,0.0,63,0.00,,,0.00,Wunderground v.1.15,2013-05-30 23:51:00,
2013-05-30 19:54:00,78.8,65.1,30.08,SE,138,0.0,0.0,63,0.00,,,0.00,Wunderground v.1.15,2013-05-30 23:54:00,
2013-05-30 19:55:00,78.8,65.1,30.08,SE,138,0.0,0.0,63,0.00,,,0.00,Wunderground v.1.15,2013-05-30 23:55:00,
2013-05-30 19:56:00,78.8,65.6,30.08,SE,138,0.0,0.0,64,0.00,,,0.00,Wunderground v.1.15,2013-05-30 23:56:00,
2013-05-30 19:59:00,78.8,65.6,30.08,SE,138,0.0,0.0,64,0.00,,,0.00,Wunderground v.1.15,2013-05-30 23:59:00,
2013-05-30 20:00:00,78.8,65.6,30.08,SE,138,0.0,0.0,64,0.00,,,0.00,Wunderground v.1.15,2013-05-31 00:00:00,
2013-05-30 20:01:00,78.6,65.4,30.08,SE,138,0.0,0.0,64,0.00,,,0.00,Wunderground v.1.15,2013-05-31 00:01:00,
2013-05-30 20:04:00,78.5,65.3,30.08,SE,138,0.0,0.0,64,0.00,,,0.00,Wunderground v.1.15,2013-05-31 00:04:00,
2013-05-30 20:05:00,78.5,65.3,30.08,SE,138,0.0,0.0,64,0.00,,,0.00,Wunderground v.1.15,2013-05-31 00:05:00,
2013-05-30 20:06:00,78.5,65.8,30.08,SE,138,0.0,0.0,65,0.00,,,0.00,Wunderground v.1.15,2013-05-31 00:06:00,
2013-05-30 20:09:00,78.3,65.6,30.08,SE,138,0.0,0.0,65,0.00,,,0.00,Wunderground v.1.15,2013-05-31 00:09:00,
2013-05-30 20:11:00,78.3,66.0,30.08,SE,138,0.0,0.0,66,0.00,,,0.00,Wunderground v.1.15,2013-05-31 00:11:00,
2013-05-30 20:12:00,78.1,65.8,30.08,SE,138,0.0,0.0,66,0.00,,,0.00,Wunderground v.1.15,2013-05-31 00:12:00,
2013-05-30 20:14:00,78.1,65.8,30.08,SE,138,0.0,0.0,66,0.00,,,0.00,Wunderground v.1.15,2013-05-31 00:14:00,
2013-05-30 20:16:00,77.9,65.6,30.08,SE,138,0.0,0.0,66,0.00,,,0.00,Wunderground v.1.15,2013-05-31 00:16:00,
2013-05-30 20:17:00,77.9,66.1,30.08,SE,138,0.0,0.0,67,0.00,,,0.00,Wunderground v.1.15,2013-05-31 00:17:00,
2013-05-30 20:20:00,77.6,65.8,30.08,SE,138,0.0,0.0,67,0.00,,,0.00,Wunderground v.1.15,2013-05-31 00:20:00,
2013-05-30 20:21:00,77.6,65.8,30.08,SE,138,0.0,0.0,67,0.00,,,0.00,Wunderground v.1.15,2013-05-31 00:21:00,
2013-05-30 20:22:00,77.4,66.0,30.08,SE,138,0.0,0.0,68,0.00,,,0.00,Wunderground v.1.15,2013-05-31 00:22:00,
2013-05-30 20:23:00,77.4,66.0,30.08,SE,138,0.0,0.0,68,0.00,,,0.00,Wunderground v.1.15,2013-05-31 00:23:00,
2013-05-30 20:25:00,77.4,66.0,30.08,SE,138,0.0,0.0,68,0.00,,,0.00,Wunderground v.1.15,2013-05-31 00:25:00,
2013-05-30 20:26:00,77.2,65.8,30.08,SE,138,0.0,0.0,68,0.00,,,0.00,Wunderground v.1.15,2013-05-31 00:26:00,
2013-05-30 20:28:00,77.2,66.2,30.08,SE,138,0.0,0.0,69,0.00,,,0.00,Wunderground v.1.15,2013-05-31 00:28:00,
2013-05-30 20:31:00,76.8,66.3,30.08,SE,138,0.0,0.0,70,0.00,,,0.00,Wunderground v.1.15,2013-05-31 00:31:00,
2013-05-30 20:32:00,76.8,66.3,30.08,SE,138,0.0,0.0,70,0.00,,,0.00,Wunderground v.1.15,2013-05-31 00:32:00,
2013-05-30 20:34:00,76.7,66.2,30.08,SE,138,0.0,0.0,70,0.00,,,0.00,Wunderground v.1.15,2013-05-31 00:34:00,
2013-05-30 20:35:00,76.5,66.4,30.08,SE,138,0.0,0.0,71,0.00,,,0.00,Wunderground v.1.15,2013-05-31 00:35:00,
2013-05-30 20:38:00,76.3,66.2,30.08,SE,138,0.0,0.0,71,0.00,,,0.00,Wunderground v.1.15,2013-05-31 00:38:00,
2013-05-30 20:39:00,76.3,66.2,30.08,SE,138,0.0,0.0,71,0.00,,,0.00,Wunderground v.1.15,2013-05-31 00:39:00,
2013-05-30 20:42:00,76.1,66.4,30.08,SE,138,0.0,0.0,72,0.00,,,0.00,Wunderground v.1.15,2013-05-31 00:42:00,
2013-05-30 20:43:00,76.1,66.4,30.08,SE,138,0.0,0.0,72,0.00,,,0.00,Wunderground v.1.15,2013-05-31 00:43:00,
2013-05-30 20:44:00,76.0,66.3,30.08,SE,138,0.0,0.0,72,0.00,,,0.00,Wunderground v.1.15,2013-05-31 00:44:00,
2013-05-30 20:47:00,76.0,66.7,30.08,SE,138,0.0,0.0,73,0.00,,,0.00,Wunderground v.1.15,2013-05-31 00:47:00,
2013-05-30 20:49:00,75.8,66.5,30.08,SE,138,0.0,0.0,73,0.00,,,0.00,Wunderground v.1.15,2013-05-31 00:49:00,
2013-05-30 20:50:00,75.8,66.5,30.09,SE,138,0.0,0.0,73,0.00,,,0.00,Wunderground v.1.15,2013-05-31 00:50:00,
2013-05-30 20:52:00,75.6,66.3,30.08,SE,138,0.0,0.0,73,0.00,,,0.00,Wunderground v.1.15,2013-05-31 00:52:00,
2013-05-30 20:54:00,75.6,66.3,30.09,SE,138,0.0,0.0,73,0.00,,,0.00,Wunderground v.1.15,2013-05-31 00:54:00,
2013-05-30 20:55:00,75.6,66.3,30.09,SE,138,0.0,0.0,73,0.00,,,0.00,Wunderground v.1.15,2013-05-31 00:55:00,
2013-05-30 20:58:00,75.4,66.5,30.08,SE,138,0.0,0.0,74,0.00,,,0.00,Wunderground v.1.15,2013-05-31 00:58:00,
2013-05-30 20:59:00,75.4,66.5,30.08,SE,138,0.0,0.0,74,0.00,,,0.00,Wunderground v.1.15,2013-05-31 00:59:00,
2013-05-30 21:00:00,75.4,66.5,30.08,SE,138,0.0,0.0,74,0.00,,,0.00,Wunderground v.1.15,2013-05-31 01:00:00,
2013-05-30 21:03:00,75.4,66.5,30.08,SE,138,0.0,0.0,74,0.00,,,0.00,Wunderground v.1.15,2013-05-31 01:03:00,
2013-05-30 21:04:00,75.4,66.5,30.08,SE,138,0.0,0.0,74,0.00,,,0.00,Wunderground v.1.15,2013-05-31 01:04:00,
2013-05-30 21:05:00,75.3,66.8,30.09,SE,138,0.0,0.0,75,0.00,,,0.00,Wunderground v.1.15,2013-05-31 01:05:00,
2013-05-30 21:06:00,75.3,66.8,30.09,SE,138,0.0,0.0,75,0.00,,,0.00,Wunderground v.1.15,2013-05-31 01:06:00,
2013-05-30 21:08:00,75.3,66.8,30.09,SE,138,0.0,0.0,75,0.00,,,0.00,Wunderground v.1.15,2013-05-31 01:08:00,
2013-05-30 21:09:00,75.3,66.8,30.09,SE,138,0.0,0.0,75,0.00,,,0.00,Wunderground v.1.15,2013-05-31 01:09:00,
2013-05-30 21:10:00,75.1,66.6,30.09,SE,138,0.0,0.0,75,0.00,,,0.00,Wunderground v.1.15,2013-05-31 01:10:00,
2013-05-30 21:11:00,75.1,67.0,30.09,SE,138,0.0,0.0,76,0.00,,,0.00,Wunderground v.1.15,2013-05-31 01:11:00,
2013-05-30 21:13:00,75.1,67.0,30.09,SE,138,0.0,0.0,76,0.00,,,0.00,Wunderground v.1.15,2013-05-31 01:13:00,
2013-05-30 21:14:00,75.1,67.0,30.09,SE,138,0.0,0.0,76,0.00,,,0.00,Wunderground v.1.15,2013-05-31 01:14:00,
2013-05-30 21:15:00,75.1,67.0,30.09,SE,138,0.0,0.0,76,0.00,,,0.00,Wunderground v.1.15,2013-05-31 01:15:00,
2013-05-30 21:16:00,75.1,67.0,30.09,SE,138,0.0,0.0,76,0.00,,,0.00,Wunderground v.1.15,2013-05-31 01:16:00,
2013-05-30 21:17:00,74.9,66.8,30.09,SE,138,0.0,0.0,76,0.00,,,0.00,Wunderground v.1.15,2013-05-31 01:17:00,
2013-05-30 21:19:00,74.9,66.8,30.09,SE,138,0.0,0.0,76,0.00,,,0.00,Wunderground v.1.15,2013-05-31 01:19:00,
2013-05-30 21:20:00,74.9,66.8,30.09,SE,138,0.0,0.0,76,0.00,,,0.00,Wunderground v.1.15,2013-05-31 01:20:00,
2013-05-30 21:21:00,74.9,66.8,30.09,SE,138,0.0,0.0,76,0.00,,,0.00,Wunderground v.1.15,2013-05-31 01:21:00,
2013-05-30 21:22:00,74.7,66.6,30.09,SE,138,0.0,0.0,76,0.00,,,0.00,Wunderground v.1.15,2013-05-31 01:22:00,
2013-05-30 21:24:00,74.7,67.0,30.09,SE,138,0.0,0.0,77,0.00,,,0.00,Wunderground v.1.15,2013-05-31 01:24:00,
2013-05-30 21:25:00,74.7,67.0,30.09,SE,138,0.0,0.0,77,0.00,,,0.00,Wunderground v.1.15,2013-05-31 01:25:00,
2013-05-30 21:26:00,74.7,67.0,30.09,SE,138,0.0,0.0,77,0.00,,,0.00,Wunderground v.1.15,2013-05-31 01:26:00,
2013-05-30 21:27:00,74.7,67.0,30.09,SE,138,0.0,0.0,77,0.00,,,0.00,Wunderground v.1.15,2013-05-31 01:27:00,
2013-05-30 21:29:00,74.6,66.9,30.09,SE,138,0.0,0.0,77,0.00,,,0.00,Wunderground v.1.15,2013-05-31 01:29:00,
2013-05-30 21:30:00,74.6,66.9,30.09,SE,138,0.0,0.0,77,0.00,,,0.00,Wunderground v.1.15,2013-05-31 01:30:00,
2013-05-30 21:31:00,74.6,66.9,30.09,SE,138,0.0,0.0,77,0.00,,,0.00,Wunderground v.1.15,2013-05-31 01:31:00,
2013-05-30 21:32:00,74.6,66.9,30.09,SE,138,0.0,0.0,77,0.00,,,0.00,Wunderground v.1.15,2013-05-31 01:32:00,
2013-05-30 21:34:00,74.6,66.9,30.09,SE,138,0.0,1.0,77,0.00,,,0.00,Wunderground v.1.15,2013-05-31 01:34:00,
2013-05-30 21:35:00,74.6,66.9,30.09,SE,138,0.0,1.0,77,0.00,,,0.00,Wunderground v.1.15,2013-05-31 01:35:00,
2013-05-30 21:37:00,74.6,66.9,30.09,SE,138,0.0,1.0,77,0.00,,,0.00,Wunderground v.1.15,2013-05-31 01:37:00,
2013-05-30 21:38:00,74.6,66.9,30.09,SE,138,0.0,1.0,77,0.00,,,0.00,Wunderground v.1.15,2013-05-31 01:38:00,
2013-05-30 21:40:00,74.6,66.9,30.10,SE,138,0.0,0.0,77,0.00,,,0.00,Wunderground v.1.15,2013-05-31 01:40:00,
2013-05-30 21:42:00,74.6,66.5,30.10,SE,138,0.0,0.0,76,0.00,,,0.00,Wunderground v.1.15,2013-05-31 01:42:00,
2013-05-30 21:43:00,74.6,66.5,30.10,SE,138,0.0,0.0,76,0.00,,,0.00,Wunderground v.1.15,2013-05-31 01:43:00,
2013-05-30 21:45:00,74.6,66.5,30.10,SE,138,0.0,0.0,76,0.00,,,0.00,Wunderground v.1.15,2013-05-31 01:45:00,
2013-05-30 21:46:00,74.6,66.5,30.10,SE,138,0.0,0.0,76,0.00,,,0.00,Wunderground v.1.15,2013-05-31 01:46:00,
2013-05-30 21:48:00,74.6,66.5,30.09,SE,138,0.0,0.0,76,0.00,,,0.00,Wunderground v.1.15,2013-05-31 01:48:00,
2013-05-30 21:51:00,74.7,66.6,30.10,SE,138,0.0,0.0,76,0.00,,,0.00,Wunderground v.1.15,2013-05-31 01:51:00,
2013-05-30 21:53:00,74.7,66.6,30.10,SE,138,0.0,0.0,76,0.00,,,0.00,Wunderground v.1.15,2013-05-31 01:53:00,
2013-05-30 21:54:00,74.9,66.8,30.10,SE,138,0.0,0.0,76,0.00,,,0.00,Wunderground v.1.15,2013-05-31 01:54:00,
2013-05-30 21:56:00,74.9,66.4,30.10,SE,138,0.0,1.0,75,0.00,,,0.00,Wunderground v.1.15,2013-05-31 01:56:00,
2013-05-30 21:59:00,75.3,66.4,30.10,SW,236,1.0,1.0,74,0.00,,,0.00,Wunderground v.1.15,2013-05-31 01:59:00,
2013-05-30 22:01:00,75.6,65.9,30.10,SW,236,0.0,0.0,72,0.00,,,0.00,Wunderground v.1.15,2013-05-31 02:01:00,
2013-05-30 22:04:00,76.1,66.0,30.10,SW,236,0.0,1.0,71,0.00,,,0.00,Wunderground v.1.15,2013-05-31 02:04:00,
2013-05-30 22:06:00,76.5,66.4,30.10,SW,236,0.0,1.0,71,0.00,,,0.00,Wunderground v.1.15,2013-05-31 02:06:00,
2013-05-30 22:09:00,76.8,66.3,30.10,SW,236,1.0,1.0,70,0.00,,,0.00,Wunderground v.1.15,2013-05-31 02:09:00,
2013-05-30 22:12:00,77.2,66.2,30.10,SW,236,0.0,0.0,69,0.00,,,0.00,Wunderground v.1.15,2013-05-31 02:12:00,
2013-05-30 22:14:00,77.4,66.0,30.10,SW,236,0.0,2.0,68,0.00,,,0.00,Wunderground v.1.15,2013-05-31 02:14:00,
2013-05-30 22:17:00,77.7,66.3,30.10,SW,236,0.0,2.0,68,0.00,,,0.00,Wunderground v.1.15,2013-05-31 02:17:00,
2013-05-30 22:20:00,77.9,66.1,30.10,SW,236,0.0,0.0,67,0.00,,,0.00,Wunderground v.1.15,2013-05-31 02:20:00,
2013-05-30 22:22:00,78.1,66.2,30.10,SW,236,1.0,1.0,67,0.00,,,0.00,Wunderground v.1.15,2013-05-31 02:22:00,
2013-05-30 22:25:00,78.3,66.0,30.10,SW,235,0.0,3.0,66,0.00,,,0.00,Wunderground v.1.15,2013-05-31 02:25:00,
2013-05-30 22:26:00,78.5,66.2,30.10,SW,235,0.0,3.0,66,0.00,,,0.00,Wunderground v.1.15,2013-05-31 02:26:00,
2013-05-30 22:28:00,78.5,66.2,30.10,SW,235,0.0,3.0,66,0.00,,,0.00,Wunderground v.1.15,2013-05-31 02:28:00,
2013-05-30 22:30:00,78.6,66.3,30.10,SW,229,0.0,1.0,66,0.00,,,0.00,Wunderground v.1.15,2013-05-31 02:30:00,
2013-05-30 22:31:00,78.6,66.3,30.10,SW,229,0.0,1.0,66,0.00,,,0.00,Wunderground v.1.15,2013-05-31 02:31:00,
2013-05-30 22:33:00,78.8,66.5,30.10,SW,229,0.0,3.0,66,0.00,,,0.00,Wunderground v.1.15,2013-05-31 02:33:00,
2013-05-30 22:34:00,78.8,66.5,30.10,SW,229,0.0,3.0,66,0.00,,,0.00,Wunderground v.1.15,2013-05-31 02:34:00,
2013-05-30 22:35:00,78.8,66.5,30.10,SW,229,0.0,3.0,66,0.00,,,0.00,Wunderground v.1.15,2013-05-31 02:35:00,
2013-05-30 22:36:00,78.8,66.5,30.10,SW,229,0.0,3.0,66,0.00,,,0.00,Wunderground v.1.15,2013-05-31 02:36:00,
2013-05-30 22:39:00,78.8,66.0,30.10,SW,229,0.0,3.0,65,0.00,,,0.00,Wunderground v.1.15,2013-05-31 02:39:00,
2013-05-30 22:40:00,78.8,66.0,30.10,SW,229,0.0,0.0,65,0.00,,,0.00,Wunderground v.1.15,2013-05-31 02:40:00,
2013-05-30 22:41:00,78.8,66.5,30.10,SW,229,1.0,1.0,66,0.00,,,0.00,Wunderground v.1.15,2013-05-31 02:41:00,
2013-05-30 22:44:00,78.8,66.5,30.10,SW,229,0.0,1.0,66,0.00,,,0.00,Wunderground v.1.15,2013-05-31 02:44:00,
2013-05-30 22:46:00,78.8,66.5,30.10,SW,229,1.0,2.0,66,0.00,,,0.00,Wunderground v.1.15,2013-05-31 02:46:00,
2013-05-30 22:47:00,78.8,66.5,30.10,SW,229,0.0,2.0,66,0.00,,,0.00,Wunderground v.1.15,2013-05-31 02:47:00,
2013-05-30 22:49:00,78.8,66.5,30.10,SW,229,0.0,2.0,66,0.00,,,0.00,Wunderground v.1.15,2013-05-31 02:49:00,
2013-05-30 22:50:00,78.8,66.5,30.10,SW,229,0.0,0.0,66,0.00,,,0.00,Wunderground v.1.15,2013-05-31 02:50:00,
2013-05-30 22:52:00,78.8,66.5,30.10,SW,229,0.0,1.0,66,0.00,,,0.00,Wunderground v.1.15,2013-05-31 02:52:00,
2013-05-30 22:54:00,78.8,66.5,30.10,SW,229,0.0,1.0,66,0.00,,,0.00,Wunderground v.1.15,2013-05-31 02:54:00,
2013-05-30 22:55:00,78.8,66.5,30.10,SW,229,0.0,1.0,66,0.00,,,0.00,Wunderground v.1.15,2013-05-31 02:55:00,
2013-05-30 22:56:00,78.6,66.3,30.10,WSW,243,1.0,4.0,66,0.00,,,0.00,Wunderground v.1.15,2013-05-31 02:56:00,
2013-05-30 22:57:00,78.6,66.3,30.10,WSW,243,0.0,4.0,66,0.00,,,0.00,Wunderground v.1.15,2013-05-31 02:57:00,
2013-05-30 22:58:00,78.6,66.3,30.10,WSW,243,0.0,4.0,66,0.00,,,0.00,Wunderground v.1.15,2013-05-31 02:58:00,
2013-05-30 23:00:00,78.6,66.3,30.10,WSW,243,0.0,0.0,66,0.00,,,0.00,Wunderground v.1.15,2013-05-31 03:00:00,
2013-05-30 23:01:00,78.6,66.3,30.10,WSW,243,0.0,1.0,66,0.00,,,0.00,Wunderground v.1.15,2013-05-31 03:01:00,
2013-05-30 23:02:00,78.6,66.3,30.10,WSW,243,3.0,3.0,66,0.00,,,0.00,Wunderground v.1.15,2013-05-31 03:02:00,
2013-05-30 23:04:00,78.5,66.6,30.11,WSW,243,0.0,3.0,67,0.00,,,0.00,Wunderground v.1.15,2013-05-31 03:04:00,
2013-05-30 23:05:00,78.5,66.6,30.11,WSW,243,0.0,3.0,67,0.00,,,0.00,Wunderground v.1.15,2013-05-31 03:05:00,
2013-05-30 23:06:00,78.5,66.6,30.11,WSW,243,0.0,3.0,67,0.00,,,0.00,Wunderground v.1.15,2013-05-31 03:06:00,
2013-05-30 23:07:00,78.5,66.6,30.10,WSW,243,0.0,3.0,67,0.00,,,0.00,Wunderground v.1.15,2013-05-31 03:07:00,
2013-05-30 23:09:00,78.3,66.4,30.11,WSW,243,0.0,3.0,67,0.00,,,0.00,Wunderground v.1.15,2013-05-31 03:09:00,
2013-05-30 23:10:00,78.3,66.4,30.11,WSW,243,0.0,1.0,67,0.00,,,0.00,Wunderground v.1.15,2013-05-31 03:10:00,
2013-05-30 23:11:00,78.3,66.4,30.11,WSW,243,0.0,3.0,67,0.00,,,0.00,Wunderground v.1.15,2013-05-31 03:11:00,
2013-05-30 23:12:00,78.3,66.4,30.11,WSW,243,0.0,3.0,67,0.00,,,0.00,Wunderground v.1.15,2013-05-31 03:12:00,
2013-05-30 23:15:00,78.1,66.7,30.11,WSW,242,0.0,3.0,68,0.00,,,0.00,Wunderground v.1.15,2013-05-31 03:15:00,
2013-05-30 23:16:00,78.1,66.7,30.11,WSW,242,0.0,3.0,68,0.00,,,0.00,Wunderground v.1.15,2013-05-31 03:16:00,
2013-05-30 23:17:00,78.1,66.7,30.11,SSW,202,0.0,3.0,68,0.00,,,0.00,Wunderground v.1.15,2013-05-31 03:17:00,
2013-05-30 23:21:00,78.1,66.7,30.11,SSW,202,0.0,0.0,68,0.00,,,0.00,Wunderground v.1.15,2013-05-31 03:21:00,
2013-05-30 23:22:00,78.1,66.7,30.11,SSW,202,1.0,2.0,68,0.00,,,0.00,Wunderground v.1.15,2013-05-31 03:22:00,
2013-05-30 23:26:00,77.9,66.5,30.11,WSW,249,0.0,5.0,68,0.00,,,0.00,Wunderground v.1.15,2013-05-31 03:26:00,
2013-05-30 23:27:00,77.9,66.5,30.11,WSW,249,0.0,5.0,68,0.00,,,0.00,Wunderground v.1.15,2013-05-31 03:27:00,
2013-05-30 23:28:00,77.7,66.3,30.11,WSW,249,0.0,5.0,68,0.00,,,0.00,Wunderground v.1.15,2013-05-31 03:28:00,
2013-05-30 23:31:00,77.7,66.7,30.11,WSW,249,0.0,0.0,69,0.00,,,0.00,Wunderground v.1.15,2013-05-31 03:31:00,
2013-05-30 23:32:00,77.7,66.7,30.11,WSW,249,1.0,1.0,69,0.00,,,0.00,Wunderground v.1.15,2013-05-31 03:32:00,
2013-05-30 23:33:00,77.7,66.7,30.11,WSW,249,0.0,1.0,69,0.00,,,0.00,Wunderground v.1.15,2013-05-31 03:33:00,
2013-05-30 23:36:00,77.6,66.6,30.11,WSW,249,0.0,1.0,69,0.00,,,0.00,Wunderground v.1.15,2013-05-31 03:36:00,
2013-05-30 23:38:00,77.4,66.4,30.11,WSW,249,2.0,2.0,69,0.00,,,0.00,Wunderground v.1.15,2013-05-31 03:38:00,
2013-05-30 23:41:00,77.4,66.4,30.11,WSW,249,0.0,0.0,69,0.00,,,0.00,Wunderground v.1.15,2013-05-31 03:41:00,
2013-05-30 23:43:00,77.4,66.4,30.11,WSW,249,1.0,1.0,69,0.00,,,0.00,Wunderground v.1.15,2013-05-31 03:43:00,
2013-05-30 23:47:00,77.2,66.7,30.11,WSW,249,0.0,1.0,70,0.00,,,0.00,Wunderground v.1.15,2013-05-31 03:47:00,
2013-05-30 23:48:00,77.2,66.7,30.11,WSW,249,0.0,1.0,70,0.00,,,0.00,Wunderground v.1.15,2013-05-31 03:48:00,
2013-05-30 23:52:00,77.2,66.7,30.11,WSW,249,0.0,0.0,70,0.00,,,0.00,Wunderground v.1.15,2013-05-31 03:52:00,
2013-05-30 23:53:00,77.2,66.7,30.11,WSW,249,0.0,0.0,70,0.00,,,0.00,Wunderground v.1.15,2013-05-31 03:53:00,
2013-05-30 23:54:00,77.0,66.5,30.11,WSW,249,0.0,0.0,70,0.00,,,0.00,Wunderground v.1.15,2013-05-31 03:54:00,
2013-05-30 23:57:00,77.0,66.5,30.11,WSW,249,0.0,2.0,70,0.00,,,0.00,Wunderground v.1.15,2013-05-31 03:57:00,
2013-05-30 23:58:00,77.0,66.5,30.11,WSW,249,1.0,2.0,70,0.00,,,0.00,Wunderground v.1.15,2013-05-31 03:58:00,
2013-05-30 23:59:00,77.0,66.5,30.11,WSW,249,0.0,2.0,70,0.00,,,0.00,Wunderground v.1.15,2013-05-31 03:59:00,